Wetterdaten: Donnerstag, 30.03.2017
Datum Zeit Temp. Aussen Temp. o. S. +5cm Feuchte Auss BlattFeu 1 Luftdruck Regen Sonnenschein Regendauer Solar Windben Empfang
30.03.2017 00:00 14,2 C 14,4 C 12,2 C 77 % 0 lf 1024,7 hPa 0,0 l/m 0 min 0 min 0 W/m 12,6 km/h (3 Bft) 97,83 %
30.03.2017 00:02 14,2 C 14,4 C 12,2 C 77 % 0 lf 1024,7 hPa 0,0 l/m 0 min 0 min 0 W/m 12,6 km/h (3 Bft) 97,73 %
30.03.2017 00:04 14,2 C 14,4 C 12,2 C 77 % 0 lf 1024,7 hPa 0,0 l/m 0 min 0 min 0 W/m 12,6 km/h (3 Bft) 93,62 %
30.03.2017 00:06 14,2 C 14,4 C 12,2 C 77 % 0 lf 1024,7 hPa 0,0 l/m 0 min 0 min 0 W/m 10,5 km/h (2 Bft) 95,74 %
30.03.2017 00:10 14,2 C 14,4 C 12,2 C 77 % 0 lf 1024,7 hPa 0,0 l/m 0 min 0 min 0 W/m 10,5 km/h (2 Bft) 96,55 %
30.03.2017 00:12 14,2 C 14,4 C 12,2 C 77 % 0 lf 1024,8 hPa 0,0 l/m 0 min 0 min 0 W/m 10,5 km/h (2 Bft) 93,62 %
30.03.2017 00:14 14,2 C 14,4 C 12,2 C 77 % 0 lf 1024,8 hPa 0,0 l/m 0 min 0 min 0 W/m 12,6 km/h (3 Bft) 95,65 %
30.03.2017 00:16 14,2 C 14,4 C 12,2 C 77 % 0 lf 1024,8 hPa 0,0 l/m 0 min 0 min 0 W/m 12,6 km/h (3 Bft) 93,62 %
30.03.2017 00:18 14,2 C 14,4 C 12,2 C 77 % 0 lf 1024,7 hPa 0,0 l/m 0 min 0 min 0 W/m 10,5 km/h (2 Bft) 95,74 %
30.03.2017 00:20 14,2 C 14,4 C 12,2 C 77 % 0 lf 1024,7 hPa 0,0 l/m 0 min 0 min 0 W/m 8,4 km/h (2 Bft) 95,74 %
30.03.2017 00:22 14,2 C 14,4 C 12,2 C 77 % 0 lf 1024,8 hPa 0,0 l/m 0 min 0 min 0 W/m 10,5 km/h (2 Bft) 95,74 %
30.03.2017 00:24 14,2 C 14,4 C 12,2 C 77 % 0 lf 1024,7 hPa 0,0 l/m 0 min 0 min 0 W/m 12,6 km/h (3 Bft) 93,62 %
30.03.2017 00:26 14,2 C 14,4 C 12,2 C 77 % 0 lf 1024,7 hPa 0,0 l/m 0 min 0 min 0 W/m 10,5 km/h (2 Bft) 95,65 %
30.03.2017 00:28 14,2 C 14,4 C 12,2 C 77 % 0 lf 1024,7 hPa 0,0 l/m 0 min 0 min 0 W/m 8,4 km/h (2 Bft) 97,87 %
30.03.2017 00:30 14,2 C 14,4 C 12,2 C 77 % 0 lf 1024,7 hPa 0,0 l/m 0 min 0 min 0 W/m 10,5 km/h (2 Bft) 97,87 %
30.03.2017 00:32 14,2 C 14,4 C 12,2 C 77 % 0 lf 1024,7 hPa 0,0 l/m 0 min 0 min 0 W/m 10,5 km/h (2 Bft) 95,74 %
30.03.2017 00:34 14,2 C 14,4 C 12,2 C 77 % 0 lf 1024,7 hPa 0,0 l/m 0 min 0 min 0 W/m 14,6 km/h (3 Bft) 95,74 %
30.03.2017 00:36 14,2 C 14,4 C 12,2 C 77 % 0 lf 1024,7 hPa 0,0 l/m 0 min 0 min 0 W/m 12,6 km/h (3 Bft) 95,65 %
30.03.2017 00:38 14,2 C 14,4 C 12,2 C 77 % 0 lf 1024,7 hPa 0,0 l/m 0 min 0 min 0 W/m 12,6 km/h (3 Bft) 93,62 %
30.03.2017 00:40 14,2 C 14,4 C 12,2 C 77 % 0 lf 1024,7 hPa 0,0 l/m 0 min 0 min 0 W/m 10,5 km/h (2 Bft) 97,87 %
30.03.2017 00:42 14,2 C 14,4 C 12,2 C 77 % 0 lf 1024,7 hPa 0,0 l/m 0 min 0 min 0 W/m 10,5 km/h (2 Bft) 93,62 %
30.03.2017 00:44 14,2 C 14,4 C 12,2 C 77 % 0 lf 1024,7 hPa 0,0 l/m 0 min 0 min 0 W/m 8,4 km/h (2 Bft) 95,74 %
30.03.2017 00:46 14,2 C 14,4 C 12,2 C 77 % 0 lf 1024,7 hPa 0,0 l/m 0 min 0 min 0 W/m 8,4 km/h (2 Bft) 97,87 %
30.03.2017 00:48 14,2 C 14,4 C 12,2 C 77 % 0 lf 1024,7 hPa 0,0 l/m 0 min 0 min 0 W/m 10,5 km/h (2 Bft) 93,48 %
30.03.2017 00:50 14,2 C 14,4 C 12,2 C 77 % 0 lf 1024,7 hPa 0,0 l/m 0 min 0 min 0 W/m 12,6 km/h (3 Bft) 95,74 %
30.03.2017 00:52 14,2 C 14,4 C 12,2 C 77 % 0 lf 1024,7 hPa 0,0 l/m 0 min 0 min 0 W/m 8,4 km/h (2 Bft) 97,96 %
30.03.2017 00:54 14,2 C 14,4 C 12,2 C 77 % 0 lf 1024,7 hPa 0,0 l/m 0 min 0 min 0 W/m 10,5 km/h (2 Bft) 93,62 %
30.03.2017 00:56 14,2 C 14,4 C 12,2 C 77 % 0 lf 1024,7 hPa 0,0 l/m 0 min 0 min 0 W/m 10,5 km/h (2 Bft) 89,13 %
30.03.2017 00:58 14,2 C 14,4 C 12,2 C 77 % 0 lf 1024,7 hPa 0,0 l/m 0 min 0 min 0 W/m 12,6 km/h (3 Bft) 97,87 %
30.03.2017 01:00 14,2 C 14,4 C 12,2 C 77 % 0 lf 1024,7 hPa 0,0 l/m 0 min 0 min 0 W/m 14,6 km/h (3 Bft) 93,62 %
30.03.2017 01:02 14,2 C 14,4 C 12,2 C 77 % 0 lf 1024,7 hPa 0,0 l/m 0 min 0 min 0 W/m 16,7 km/h (3 Bft) 97,87 %
30.03.2017 01:04 14,2 C 13,9 C 12,2 C 76 % 0 lf 1024,7 hPa 0,0 l/m 0 min 0 min 0 W/m 10,5 km/h (2 Bft) 97,87 %
30.03.2017 01:06 14,2 C 13,9 C 11,7 C 76 % 0 lf 1024,7 hPa 0,0 l/m 0 min 0 min 0 W/m 12,6 km/h (3 Bft) 97,83 %
30.03.2017 01:08 14,2 C 13,9 C 11,7 C 76 % 0 lf 1024,6 hPa 0,0 l/m 0 min 0 min 0 W/m 10,5 km/h (2 Bft) 93,62 %
30.03.2017 01:10 14,2 C 13,9 C 11,7 C 76 % 0 lf 1024,6 hPa 0,0 l/m 0 min 0 min 0 W/m 12,6 km/h (3 Bft) 95,74 %
30.03.2017 01:12 14,2 C 13,9 C 11,7 C 76 % 0 lf 1024,7 hPa 0,0 l/m 0 min 0 min 0 W/m 10,5 km/h (2 Bft) 97,87 %
30.03.2017 01:14 14,1 C 13,9 C 11,1 C 76 % 0 lf 1024,7 hPa 0,0 l/m 0 min 0 min 0 W/m 10,5 km/h (2 Bft) 97,87 %
30.03.2017 01:16 14,1 C 13,3 C 11,1 C 76 % 0 lf 1024,7 hPa 0,0 l/m 0 min 0 min 0 W/m 10,5 km/h (2 Bft) 95,74 %
30.03.2017 01:18 14,1 C 13,3 C 11,1 C 76 % 0 lf 1024,7 hPa 0,0 l/m 0 min 0 min 0 W/m 12,6 km/h (3 Bft) 97,83 %
30.03.2017 01:20 14,0 C 13,3 C 11,1 C 76 % 0 lf 1024,7 hPa 0,0 l/m 0 min 0 min 0 W/m 6,3 km/h (2 Bft) 97,87 %
30.03.2017 01:22 13,9 C 13,3 C 10,6 C 76 % 0 lf 1024,7 hPa 0,0 l/m 0 min 0 min 0 W/m 8,4 km/h (2 Bft) 95,74 %
30.03.2017 01:24 13,9 C 13,3 C 10,6 C 76 % 0 lf 1024,7 hPa 0,0 l/m 0 min 0 min 0 W/m 12,6 km/h (3 Bft) 97,87 %
30.03.2017 01:26 13,9 C 12,8 C 10,6 C 76 % 0 lf 1024,7 hPa 0,0 l/m 0 min 0 min 0 W/m 6,3 km/h (2 Bft) 97,87 %
30.03.2017 01:28 13,9 C 12,8 C 10,0 C 76 % 0 lf 1024,7 hPa 0,0 l/m 0 min 0 min 0 W/m 6,3 km/h (2 Bft) 95,74 %
30.03.2017 01:30 13,8 C 12,8 C 10,0 C 76 % 0 lf 1024,7 hPa 0,0 l/m 0 min 0 min 0 W/m 8,4 km/h (2 Bft) 93,48 %
30.03.2017 01:32 13,8 C 12,8 C 10,0 C 76 % 0 lf 1024,7 hPa 0,0 l/m 0 min 0 min 0 W/m 8,4 km/h (2 Bft) 89,36 %
30.03.2017 01:34 13,8 C 12,8 C 10,0 C 77 % 0 lf 1024,7 hPa 0,0 l/m 0 min 0 min 0 W/m 12,6 km/h (3 Bft) 93,62 %
30.03.2017 01:36 13,7 C 12,8 C 10,0 C 77 % 0 lf 1024,7 hPa 0,0 l/m 0 min 0 min 0 W/m 8,4 km/h (2 Bft) 95,74 %
30.03.2017 01:38 13,7 C 12,8 C 10,0 C 77 % 0 lf 1024,7 hPa 0,0 l/m 0 min 0 min 0 W/m 6,3 km/h (2 Bft) 93,62 %
30.03.2017 01:40 13,7 C 12,8 C 10,0 C 77 % 0 lf 1024,7 hPa 0,0 l/m 0 min 0 min 0 W/m 10,5 km/h (2 Bft) 95,74 %
30.03.2017 01:42 13,6 C 12,8 C 10,0 C 77 % 0 lf 1024,7 hPa 0,0 l/m 0 min 0 min 0 W/m 10,5 km/h (2 Bft) 93,48 %
30.03.2017 01:44 13,6 C 12,8 C 10,0 C 77 % 0 lf 1024,7 hPa 0,0 l/m 0 min 0 min 0 W/m 8,4 km/h (2 Bft) 95,74 %
30.03.2017 01:46 13,5 C 12,8 C 10,0 C 77 % 0 lf 1024,7 hPa 0,0 l/m 0 min 0 min 0 W/m 10,5 km/h (2 Bft) 95,74 %
30.03.2017 01:48 13,4 C 12,8 C 10,0 C 78 % 0 lf 1024,7 hPa 0,0 l/m 0 min 0 min 0 W/m 14,6 km/h (3 Bft) 89,36 %
30.03.2017 01:50 13,4 C 12,8 C 10,0 C 78 % 0 lf 1024,7 hPa 0,0 l/m 0 min 0 min 0 W/m 10,5 km/h (2 Bft) 91,49 %
30.03.2017 01:52 13,4 C 12,8 C 10,6 C 78 % 0 lf 1024,7 hPa 0,0 l/m 0 min 0 min 0 W/m 12,6 km/h (3 Bft) 95,74 %
30.03.2017 01:54 13,3 C 12,8 C 10,6 C 78 % 0 lf 1024,7 hPa 0,0 l/m 0 min 0 min 0 W/m 10,5 km/h (2 Bft) 93,48 %
30.03.2017 01:56 13,3 C 12,8 C 10,6 C 78 % 0 lf 1024,7 hPa 0,0 l/m 0 min 0 min 0 W/m 12,6 km/h (3 Bft) 95,74 %
30.03.2017 01:58 13,3 C 12,8 C 10,6 C 78 % 0 lf 1024,7 hPa 0,0 l/m 0 min 0 min 0 W/m 8,4 km/h (2 Bft) 95,74 %
30.03.2017 02:00 13,3 C 12,8 C 10,6 C 78 % 0 lf 1024,7 hPa 0,0 l/m 0 min 0 min 0 W/m 14,6 km/h (3 Bft) 95,74 %
30.03.2017 02:02 13,2 C 12,8 C 10,6 C 78 % 0 lf 1024,7 hPa 0,0 l/m 0 min 0 min 0 W/m 8,4 km/h (2 Bft) 93,62 %
30.03.2017 02:04 13,2 C 12,8 C 10,6 C 78 % 0 lf 1024,7 hPa 0,0 l/m 0 min 0 min 0 W/m 6,3 km/h (2 Bft) 93,62 %
30.03.2017 02:06 13,2 C 12,8 C 10,6 C 78 % 0 lf 1024,7 hPa 0,0 l/m 0 min 0 min 0 W/m 8,4 km/h (2 Bft) 93,48 %
30.03.2017 02:08 13,2 C 12,8 C 10,6 C 79 % 0 lf 1024,7 hPa 0,0 l/m 0 min 0 min 0 W/m 8,4 km/h (2 Bft) 93,62 %
30.03.2017 02:10 13,2 C 12,8 C 10,0 C 79 % 0 lf 1024,7 hPa 0,0 l/m 0 min 0 min 0 W/m 10,5 km/h (2 Bft) 95,74 %
30.03.2017 02:12 13,1 C 12,8 C 10,0 C 79 % 0 lf 1024,7 hPa 0,0 l/m 0 min 0 min 0 W/m 8,4 km/h (2 Bft) 95,74 %
30.03.2017 02:14 13,1 C 12,2 C 10,0 C 79 % 0 lf 1024,7 hPa 0,0 l/m 0 min 0 min 0 W/m 8,4 km/h (2 Bft) 95,74 %
30.03.2017 02:16 13,1 C 12,2 C 9,4 C 79 % 0 lf 1024,7 hPa 0,0 l/m 0 min 0 min 0 W/m 6,3 km/h (2 Bft) 97,83 %
30.03.2017 02:18 13,1 C 12,2 C 10,0 C 79 % 0 lf 1024,7 hPa 0,0 l/m 0 min 0 min 0 W/m 12,6 km/h (3 Bft) 97,87 %
30.03.2017 02:20 13,0 C 12,2 C 10,0 C 79 % 0 lf 1024,7 hPa 0,0 l/m 0 min 0 min 0 W/m 8,4 km/h (2 Bft) 95,74 %
30.03.2017 02:22 13,0 C 12,2 C 10,0 C 79 % 0 lf 1024,7 hPa 0,0 l/m 0 min 0 min 0 W/m 10,5 km/h (2 Bft) 97,87 %
30.03.2017 02:24 12,9 C 12,2 C 10,0 C 79 % 0 lf 1024,7 hPa 0,0 l/m 0 min 0 min 0 W/m 6,3 km/h (2 Bft) 95,74 %
30.03.2017 02:26 12,9 C 12,2 C 10,0 C 79 % 0 lf 1024,7 hPa 0,0 l/m 0 min 0 min 0 W/m 10,5 km/h (2 Bft) 97,87 %
30.03.2017 02:28 12,9 C 12,2 C 10,0 C 79 % 0 lf 1024,7 hPa 0,0 l/m 0 min 0 min 0 W/m 10,5 km/h (2 Bft) 93,48 %
30.03.2017 02:30 12,9 C 12,2 C 10,0 C 79 % 0 lf 1024,7 hPa 0,0 l/m 0 min 0 min 0 W/m 8,4 km/h (2 Bft) 95,74 %
30.03.2017 02:32 12,8 C 12,2 C 10,0 C 80 % 0 lf 1024,7 hPa 0,0 l/m 0 min 0 min 0 W/m 6,3 km/h (2 Bft) 100,00 %
30.03.2017 02:34 12,8 C 12,2 C 10,0 C 80 % 0 lf 1024,7 hPa 0,0 l/m 0 min 0 min 0 W/m 6,3 km/h (2 Bft) 95,74 %
30.03.2017 02:36 12,8 C 12,2 C 10,0 C 80 % 0 lf 1024,6 hPa 0,0 l/m 0 min 0 min 0 W/m 6,3 km/h (2 Bft) 100,00 %
30.03.2017 02:38 12,8 C 12,2 C 9,4 C 80 % 0 lf 1024,7 hPa 0,0 l/m 0 min 0 min 0 W/m 6,3 km/h (2 Bft) 97,87 %
30.03.2017 02:40 12,7 C 12,2 C 9,4 C 80 % 0 lf 1024,7 hPa 0,0 l/m 0 min 0 min 0 W/m 8,4 km/h (2 Bft) 97,83 %
30.03.2017 02:42 12,7 C 12,2 C 9,4 C 80 % 0 lf 1024,6 hPa 0,0 l/m 0 min 0 min 0 W/m 8,4 km/h (2 Bft) 95,74 %
30.03.2017 02:44 12,7 C 12,2 C 9,4 C 80 % 0 lf 1024,6 hPa 0,0 l/m 0 min 0 min 0 W/m 10,5 km/h (2 Bft) 100,00 %
30.03.2017 02:46 12,7 C 12,2 C 9,4 C 80 % 0 lf 1024,6 hPa 0,0 l/m 0 min 0 min 0 W/m 6,3 km/h (2 Bft) 97,87 %
30.03.2017 02:48 12,6 C 12,2 C 9,4 C 80 % 0 lf 1024,6 hPa 0,0 l/m 0 min 0 min 0 W/m 6,3 km/h (2 Bft) 100,00 %
30.03.2017 02:50 12,6 C 12,2 C 9,4 C 80 % 0 lf 1024,6 hPa 0,0 l/m 0 min 0 min 0 W/m 8,4 km/h (2 Bft) 100,00 %
30.03.2017 02:52 12,6 C 12,2 C 9,4 C 80 % 0 lf 1024,6 hPa 0,0 l/m 0 min 0 min 0 W/m 12,6 km/h (3 Bft) 97,83 %
30.03.2017 02:54 12,5 C 12,2 C 9,4 C 81 % 0 lf 1024,6 hPa 0,0 l/m 0 min 0 min 0 W/m 8,4 km/h (2 Bft) 97,87 %
30.03.2017 02:56 12,5 C 11,7 C 9,4 C 81 % 0 lf 1024,6 hPa 0,0 l/m 0 min 0 min 0 W/m 8,4 km/h (2 Bft) 93,62 %
30.03.2017 02:58 12,5 C 11,7 C 9,4 C 81 % 0 lf 1024,6 hPa 0,0 l/m 0 min 0 min 0 W/m 10,5 km/h (2 Bft) 100,00 %
30.03.2017 03:00 12,4 C 12,2 C 10,0 C 81 % 0 lf 1024,6 hPa 0,0 l/m 0 min 0 min 0 W/m 6,3 km/h (2 Bft) 97,87 %
30.03.2017 03:02 12,4 C 12,2 C 10,0 C 81 % 0 lf 1024,6 hPa 0,0 l/m 0 min 0 min 0 W/m 8,4 km/h (2 Bft) 97,87 %
30.03.2017 03:04 12,4 C 12,2 C 10,0 C 81 % 0 lf 1024,6 hPa 0,0 l/m 0 min 0 min 0 W/m 8,4 km/h (2 Bft) 97,83 %
30.03.2017 03:06 12,4 C 12,2 C 10,0 C 81 % 0 lf 1024,6 hPa 0,0 l/m 0 min 0 min 0 W/m 10,5 km/h (2 Bft) 95,74 %
30.03.2017 03:08 12,3 C 12,2 C 10,0 C 81 % 0 lf 1024,6 hPa 0,0 l/m 0 min 0 min 0 W/m 8,4 km/h (2 Bft) 95,74 %
30.03.2017 03:10 12,3 C 12,2 C 10,0 C 82 % 0 lf 1024,5 hPa 0,0 l/m 0 min 0 min 0 W/m 8,4 km/h (2 Bft) 97,87 %
30.03.2017 03:12 12,3 C 12,2 C 10,0 C 82 % 0 lf 1024,5 hPa 0,0 l/m 0 min 0 min 0 W/m 10,5 km/h (2 Bft) 95,74 %
30.03.2017 03:14 12,3 C 12,2 C 10,6 C 82 % 0 lf 1024,4 hPa 0,0 l/m 0 min 0 min 0 W/m 10,5 km/h (2 Bft) 97,83 %
30.03.2017 03:16 12,3 C 12,2 C 10,6 C 82 % 0 lf 1024,4 hPa 0,0 l/m 0 min 0 min 0 W/m 10,5 km/h (2 Bft) 97,87 %
30.03.2017 03:18 12,3 C 12,2 C 10,6 C 82 % 0 lf 1024,6 hPa 0,0 l/m 0 min 0 min 0 W/m 8,4 km/h (2 Bft) 95,74 %
30.03.2017 03:20 12,2 C 12,2 C 10,6 C 82 % 0 lf 1024,6 hPa 0,0 l/m 0 min 0 min 0 W/m 6,3 km/h (2 Bft) 95,74 %
30.03.2017 03:22 12,2 C 12,2 C 10,6 C 82 % 0 lf 1024,6 hPa 0,0 l/m 0 min 0 min 0 W/m 8,4 km/h (2 Bft) 95,74 %
30.03.2017 03:24 12,2 C 12,2 C 10,6 C 82 % 0 lf 1024,5 hPa 0,0 l/m 0 min 0 min 0 W/m 14,6 km/h (3 Bft) 95,74 %
30.03.2017 03:26 12,2 C 12,2 C 10,6 C 82 % 0 lf 1024,5 hPa 0,0 l/m 0 min 0 min 0 W/m 12,6 km/h (3 Bft) 95,74 %
30.03.2017 03:28 12,2 C 12,2 C 10,6 C 82 % 0 lf 1024,4 hPa 0,0 l/m 0 min 0 min 0 W/m 10,5 km/h (2 Bft) 97,83 %
30.03.2017 03:30 12,2 C 12,8 C 10,6 C 83 % 0 lf 1024,4 hPa 0,0 l/m 0 min 0 min 0 W/m 10,5 km/h (2 Bft) 97,87 %
30.03.2017 03:32 12,2 C 12,2 C 10,6 C 82 % 0 lf 1024,4 hPa 0,0 l/m 0 min 0 min 0 W/m 6,3 km/h (2 Bft) 97,87 %
30.03.2017 03:34 12,2 C 12,2 C 10,6 C 82 % 0 lf 1024,4 hPa 0,0 l/m 0 min 0 min 0 W/m 6,3 km/h (2 Bft) 97,87 %
30.03.2017 03:36 12,2 C 12,2 C 10,6 C 82 % 0 lf 1024,4 hPa 0,0 l/m 0 min 0 min 0 W/m 8,4 km/h (2 Bft) 97,87 %
30.03.2017 03:38 12,2 C 12,2 C 10,6 C 82 % 0 lf 1024,4 hPa 0,0 l/m 0 min 0 min 0 W/m 8,4 km/h (2 Bft) 95,65 %
30.03.2017 03:40 12,2 C 12,2 C 10,0 C 82 % 0 lf 1024,5 hPa 0,0 l/m 0 min 0 min 0 W/m 6,3 km/h (2 Bft) 97,87 %
30.03.2017 03:42 12,2 C 12,2 C 10,0 C 82 % 0 lf 1024,4 hPa 0,0 l/m 0 min 0 min 0 W/m 6,3 km/h (2 Bft) 97,87 %
30.03.2017 03:44 12,2 C 12,2 C 10,0 C 82 % 0 lf 1024,5 hPa 0,0 l/m 0 min 0 min 0 W/m 6,3 km/h (2 Bft) 95,74 %
30.03.2017 03:46 12,2 C 12,2 C 10,0 C 82 % 0 lf 1024,5 hPa 0,0 l/m 0 min 0 min 0 W/m 6,3 km/h (2 Bft) 95,74 %
30.03.2017 03:48 12,2 C 12,2 C 10,0 C 82 % 0 lf 1024,6 hPa 0,0 l/m 0 min 0 min 0 W/m 8,4 km/h (2 Bft) 97,87 %
30.03.2017 03:50 12,2 C 12,2 C 10,0 C 82 % 0 lf 1024,5 hPa 0,0 l/m 0 min 0 min 0 W/m 8,4 km/h (2 Bft) 97,83 %
30.03.2017 03:52 12,2 C 12,2 C 10,6 C 82 % 0 lf 1024,5 hPa 0,0 l/m 0 min 0 min 0 W/m 10,5 km/h (2 Bft) 100,00 %
30.03.2017 03:54 12,2 C 12,2 C 10,6 C 82 % 0 lf 1024,4 hPa 0,0 l/m 0 min 0 min 0 W/m 10,5 km/h (2 Bft) 97,87 %
30.03.2017 03:56 12,2 C 12,8 C 10,6 C 82 % 0 lf 1024,4 hPa 0,0 l/m 0 min 0 min 0 W/m 10,5 km/h (2 Bft) 95,74 %
30.03.2017 03:58 12,2 C 12,8 C 10,6 C 82 % 0 lf 1024,4 hPa 0,0 l/m 0 min 0 min 0 W/m 6,3 km/h (2 Bft) 97,87 %
30.03.2017 04:00 12,2 C 12,8 C 10,6 C 82 % 0 lf 1024,4 hPa 0,0 l/m 0 min 0 min 0 W/m 6,3 km/h (2 Bft) 97,87 %
30.03.2017 04:05 12,2 C 12,8 C 10,6 C 83 % 0 lf 1024,3 hPa 0,0 l/m 0 min 0 min 0 W/m 8,4 km/h (2 Bft) 100,00 %
30.03.2017 04:06 12,2 C 12,8 C 10,6 C 83 % 0 lf 1024,3 hPa 0,0 l/m 0 min 0 min 0 W/m 12,6 km/h (3 Bft) 95,65 %
30.03.2017 04:08 12,2 C 12,8 C 10,6 C 83 % 0 lf 1024,3 hPa 0,0 l/m 0 min 0 min 0 W/m 14,6 km/h (3 Bft) 100,00 %
30.03.2017 04:10 12,3 C 12,8 C 10,6 C 83 % 0 lf 1024,4 hPa 0,0 l/m 0 min 0 min 0 W/m 6,3 km/h (2 Bft) 97,87 %
30.03.2017 04:12 12,3 C 12,8 C 10,6 C 82 % 0 lf 1024,3 hPa 0,0 l/m 0 min 0 min 0 W/m 6,3 km/h (2 Bft) 95,74 %
30.03.2017 04:14 12,3 C 12,8 C 10,6 C 82 % 0 lf 1024,4 hPa 0,0 l/m 0 min 0 min 0 W/m 8,4 km/h (2 Bft) 97,87 %
30.03.2017 04:16 12,3 C 12,8 C 10,6 C 82 % 0 lf 1024,4 hPa 0,0 l/m 0 min 0 min 0 W/m 6,3 km/h (2 Bft) 97,83 %
30.03.2017 04:18 12,3 C 12,8 C 10,6 C 82 % 0 lf 1024,4 hPa 0,0 l/m 0 min 0 min 0 W/m 6,3 km/h (2 Bft) 95,74 %
30.03.2017 04:20 12,3 C 12,8 C 10,6 C 82 % 0 lf 1024,3 hPa 0,0 l/m 0 min 0 min 0 W/m 8,4 km/h (2 Bft) 95,74 %
30.03.2017 04:22 12,3 C 12,8 C 10,6 C 82 % 0 lf 1024,3 hPa 0,0 l/m 0 min 0 min 0 W/m 6,3 km/h (2 Bft) 95,74 %
30.03.2017 04:24 12,3 C 12,8 C 10,6 C 82 % 0 lf 1024,3 hPa 0,0 l/m 0 min 0 min 0 W/m 8,4 km/h (2 Bft) 95,74 %
30.03.2017 04:26 12,3 C 12,8 C 10,6 C 82 % 0 lf 1024,3 hPa 0,0 l/m 0 min 0 min 0 W/m 6,3 km/h (2 Bft) 95,65 %
30.03.2017 04:28 12,3 C 12,8 C 10,6 C 82 % 0 lf 1024,3 hPa 0,0 l/m 0 min 0 min 0 W/m 6,3 km/h (2 Bft) 97,87 %
30.03.2017 04:30 12,3 C 12,8 C 10,6 C 82 % 0 lf 1024,3 hPa 0,0 l/m 0 min 0 min 0 W/m 6,3 km/h (2 Bft) 97,87 %
30.03.2017 04:32 12,3 C 12,8 C 10,6 C 82 % 0 lf 1024,3 hPa 0,0 l/m 0 min 0 min 0 W/m 6,3 km/h (2 Bft) 95,74 %
30.03.2017 04:34 12,3 C 12,8 C 10,6 C 82 % 0 lf 1024,3 hPa 0,0 l/m 0 min 0 min 0 W/m 6,3 km/h (2 Bft) 95,74 %
30.03.2017 04:36 12,3 C 12,8 C 10,6 C 82 % 0 lf 1024,3 hPa 0,0 l/m 0 min 0 min 0 W/m 6,3 km/h (2 Bft) 95,74 %
30.03.2017 04:38 12,3 C 12,8 C 10,6 C 82 % 0 lf 1024,3 hPa 0,0 l/m 0 min 0 min 0 W/m 8,4 km/h (2 Bft) 95,65 %
30.03.2017 04:40 12,3 C 12,8 C 10,6 C 82 % 0 lf 1024,3 hPa 0,0 l/m 0 min 0 min 0 W/m 6,3 km/h (2 Bft) 95,74 %
30.03.2017 04:42 12,3 C 12,8 C 10,6 C 82 % 0 lf 1024,4 hPa 0,0 l/m 0 min 0 min 0 W/m 6,3 km/h (2 Bft) 91,49 %
30.03.2017 04:44 12,3 C 12,8 C 10,6 C 82 % 0 lf 1024,3 hPa 0,0 l/m 0 min 0 min 0 W/m 8,4 km/h (2 Bft) 93,62 %
30.03.2017 04:46 12,3 C 12,8 C 10,6 C 82 % 0 lf 1024,3 hPa 0,0 l/m 0 min 0 min 0 W/m 6,3 km/h (2 Bft) 91,49 %
30.03.2017 04:48 12,4 C 12,8 C 10,6 C 82 % 0 lf 1024,3 hPa 0,0 l/m 0 min 0 min 0 W/m 6,3 km/h (2 Bft) 95,74 %
30.03.2017 04:50 12,4 C 12,8 C 10,6 C 82 % 0 lf 1024,2 hPa 0,0 l/m 0 min 0 min 0 W/m 6,3 km/h (2 Bft) 95,65 %
30.03.2017 04:52 12,4 C 12,8 C 10,6 C 82 % 0 lf 1024,3 hPa 0,0 l/m 0 min 0 min 0 W/m 10,5 km/h (2 Bft) 95,74 %
30.03.2017 04:54 12,4 C 12,8 C 10,6 C 82 % 0 lf 1024,3 hPa 0,0 l/m 0 min 0 min 0 W/m 8,4 km/h (2 Bft) 93,62 %
30.03.2017 04:56 12,4 C 12,8 C 10,6 C 82 % 0 lf 1024,3 hPa 0,0 l/m 0 min 0 min 0 W/m 8,4 km/h (2 Bft) 95,74 %
30.03.2017 04:58 12,4 C 12,8 C 10,6 C 82 % 0 lf 1024,2 hPa 0,0 l/m 0 min 0 min 0 W/m 8,4 km/h (2 Bft) 93,62 %
30.03.2017 05:00 12,4 C 12,8 C 10,6 C 82 % 0 lf 1024,2 hPa 0,0 l/m 0 min 0 min 0 W/m 6,3 km/h (2 Bft) 93,48 %
30.03.2017 05:02 12,4 C 12,8 C 10,6 C 82 % 0 lf 1024,2 hPa 0,0 l/m 0 min 0 min 0 W/m 6,3 km/h (2 Bft) 91,49 %
30.03.2017 05:04 12,4 C 12,8 C 10,6 C 82 % 0 lf 1024,2 hPa 0,0 l/m 0 min 0 min 0 W/m 6,3 km/h (2 Bft) 95,74 %
30.03.2017 05:06 12,4 C 12,8 C 10,6 C 82 % 0 lf 1024,2 hPa 0,0 l/m 0 min 0 min 0 W/m 6,3 km/h (2 Bft) 95,74 %
30.03.2017 05:08 12,4 C 12,8 C 10,6 C 82 % 0 lf 1024,2 hPa 0,0 l/m 0 min 0 min 0 W/m 8,4 km/h (2 Bft) 97,87 %
30.03.2017 05:10 12,4 C 12,8 C 10,6 C 82 % 0 lf 1024,2 hPa 0,0 l/m 0 min 0 min 0 W/m 6,3 km/h (2 Bft) 95,74 %
30.03.2017 05:12 12,4 C 12,8 C 10,6 C 82 % 0 lf 1024,2 hPa 0,0 l/m 0 min 0 min 0 W/m 4,2 km/h (1 Bft) 97,83 %
30.03.2017 05:14 12,4 C 12,8 C 10,6 C 82 % 0 lf 1024,2 hPa 0,0 l/m 0 min 0 min 0 W/m 6,3 km/h (2 Bft) 97,87 %
30.03.2017 05:16 12,4 C 12,8 C 10,6 C 82 % 0 lf 1024,2 hPa 0,0 l/m 0 min 0 min 0 W/m 6,3 km/h (2 Bft) 93,62 %
30.03.2017 05:18 12,4 C 12,8 C 10,6 C 82 % 0 lf 1024,2 hPa 0,0 l/m 0 min 0 min 0 W/m 6,3 km/h (2 Bft) 93,62 %
30.03.2017 05:20 12,4 C 12,8 C 10,6 C 82 % 0 lf 1024,2 hPa 0,0 l/m 0 min 0 min 0 W/m 4,2 km/h (1 Bft) 95,74 %
30.03.2017 05:22 12,4 C 12,2 C 10,6 C 82 % 0 lf 1024,2 hPa 0,0 l/m 0 min 0 min 0 W/m 6,3 km/h (2 Bft) 97,87 %
30.03.2017 05:24 12,4 C 12,8 C 10,6 C 82 % 0 lf 1024,2 hPa 0,0 l/m 0 min 0 min 0 W/m 6,3 km/h (2 Bft) 97,83 %
30.03.2017 05:26 12,4 C 12,2 C 10,6 C 82 % 0 lf 1024,2 hPa 0,0 l/m 0 min 0 min 0 W/m 6,3 km/h (2 Bft) 97,87 %
30.03.2017 05:28 12,4 C 12,2 C 10,6 C 82 % 0 lf 1024,2 hPa 0,0 l/m 0 min 0 min 0 W/m 8,4 km/h (2 Bft) 95,74 %
30.03.2017 05:30 12,4 C 12,2 C 10,6 C 82 % 0 lf 1024,2 hPa 0,0 l/m 0 min 0 min 0 W/m 6,3 km/h (2 Bft) 97,87 %
30.03.2017 05:32 12,4 C 12,2 C 10,6 C 82 % 0 lf 1024,3 hPa 0,0 l/m 0 min 0 min 0 W/m 8,4 km/h (2 Bft) 95,74 %
30.03.2017 05:34 12,4 C 12,2 C 10,6 C 82 % 0 lf 1024,2 hPa 0,0 l/m 0 min 0 min 0 W/m 8,4 km/h (2 Bft) 97,87 %
30.03.2017 05:36 12,4 C 12,2 C 10,6 C 82 % 0 lf 1024,1 hPa 0,0 l/m 0 min 0 min 0 W/m 6,3 km/h (2 Bft) 95,65 %
30.03.2017 05:38 12,4 C 12,2 C 10,6 C 82 % 0 lf 1024,2 hPa 0,0 l/m 0 min 0 min 0 W/m 6,3 km/h (2 Bft) 95,74 %
30.03.2017 05:40 12,4 C 12,2 C 10,6 C 82 % 0 lf 1024,2 hPa 0,0 l/m 0 min 0 min 0 W/m 6,3 km/h (2 Bft) 97,87 %
30.03.2017 05:42 12,4 C 12,2 C 10,6 C 82 % 0 lf 1024,2 hPa 0,0 l/m 0 min 0 min 0 W/m 10,5 km/h (2 Bft) 95,74 %
30.03.2017 05:44 12,4 C 12,2 C 10,6 C 82 % 0 lf 1024,2 hPa 0,0 l/m 0 min 0 min 0 W/m 10,5 km/h (2 Bft) 97,87 %
30.03.2017 05:46 12,3 C 12,2 C 10,6 C 82 % 0 lf 1024,2 hPa 0,0 l/m 0 min 0 min 0 W/m 8,4 km/h (2 Bft) 95,74 %
30.03.2017 05:48 12,3 C 12,2 C 10,6 C 82 % 0 lf 1024,1 hPa 0,0 l/m 0 min 0 min 0 W/m 10,5 km/h (2 Bft) 95,65 %
30.03.2017 05:50 12,3 C 12,2 C 10,6 C 82 % 0 lf 1024,1 hPa 0,0 l/m 0 min 0 min 0 W/m 8,4 km/h (2 Bft) 95,74 %
30.03.2017 05:52 12,3 C 12,2 C 10,0 C 82 % 0 lf 1024,2 hPa 0,0 l/m 0 min 0 min 0 W/m 8,4 km/h (2 Bft) 91,49 %
30.03.2017 05:54 12,3 C 12,2 C 10,0 C 82 % 0 lf 1024,1 hPa 0,0 l/m 0 min 0 min 0 W/m 10,5 km/h (2 Bft) 95,74 %
30.03.2017 05:56 12,3 C 12,2 C 10,0 C 82 % 0 lf 1024,1 hPa 0,0 l/m 0 min 0 min 0 W/m 8,4 km/h (2 Bft) 91,49 %
30.03.2017 05:58 12,3 C 12,2 C 10,0 C 82 % 0 lf 1024,1 hPa 0,0 l/m 0 min 0 min 0 W/m 8,4 km/h (2 Bft) 95,74 %
30.03.2017 06:00 12,3 C 12,2 C 10,0 C 82 % 0 lf 1024,0 hPa 0,0 l/m 0 min 0 min 0 W/m 8,4 km/h (2 Bft) 93,48 %
30.03.2017 06:02 12,3 C 12,2 C 10,0 C 82 % 0 lf 1024,0 hPa 0,0 l/m 0 min 0 min 0 W/m 10,5 km/h (2 Bft) 95,74 %
30.03.2017 06:04 12,3 C 12,2 C 10,0 C 82 % 0 lf 1024,1 hPa 0,0 l/m 0 min 0 min 0 W/m 8,4 km/h (2 Bft) 95,74 %
30.03.2017 06:06 12,2 C 12,2 C 10,0 C 82 % 0 lf 1024,1 hPa 0,0 l/m 0 min 0 min 0 W/m 8,4 km/h (2 Bft) 93,62 %
30.03.2017 06:10 12,2 C 12,2 C 10,0 C 82 % 0 lf 1024,2 hPa 0,0 l/m 0 min 0 min 0 W/m 10,5 km/h (2 Bft) 95,51 %
30.03.2017 06:12 12,2 C 12,2 C 9,4 C 82 % 0 lf 1024,1 hPa 0,0 l/m 0 min 0 min 0 W/m 8,4 km/h (2 Bft) 93,10 %
30.03.2017 06:14 12,2 C 12,2 C 9,4 C 82 % 0 lf 1024,1 hPa 0,0 l/m 0 min 0 min 0 W/m 12,6 km/h (3 Bft) 94,44 %
30.03.2017 06:16 12,2 C 12,2 C 9,4 C 82 % 0 lf 1024,1 hPa 0,0 l/m 0 min 0 min 0 W/m 10,5 km/h (2 Bft) 95,65 %
30.03.2017 06:18 12,2 C 12,2 C 9,4 C 82 % 0 lf 1024,1 hPa 0,0 l/m 0 min 0 min 0 W/m 6,3 km/h (2 Bft) 95,74 %
30.03.2017 06:20 12,2 C 12,2 C 9,4 C 82 % 0 lf 1024,1 hPa 0,0 l/m 0 min 0 min 0 W/m 8,4 km/h (2 Bft) 96,61 %
30.03.2017 06:22 12,2 C 12,2 C 9,4 C 82 % 0 lf 1024,1 hPa 0,0 l/m 0 min 0 min 0 W/m 8,4 km/h (2 Bft) 95,74 %
30.03.2017 06:24 12,1 C 12,2 C 9,4 C 82 % 0 lf 1024,1 hPa 0,0 l/m 0 min 0 min 0 W/m 8,4 km/h (2 Bft) 95,74 %
30.03.2017 06:26 12,1 C 11,7 C 9,4 C 82 % 0 lf 1024,0 hPa 0,0 l/m 0 min 0 min 0 W/m 6,3 km/h (2 Bft) 95,65 %
30.03.2017 06:28 12,1 C 11,7 C 9,4 C 82 % 0 lf 1024,0 hPa 0,0 l/m 0 min 0 min 0 W/m 6,3 km/h (2 Bft) 97,14 %
30.03.2017 06:30 12,1 C 11,7 C 9,4 C 82 % 0 lf 1024,1 hPa 0,0 l/m 0 min 0 min 0 W/m 4,2 km/h (1 Bft) 97,87 %
30.03.2017 06:32 12,1 C 11,7 C 8,9 C 82 % 0 lf 1024,0 hPa 0,0 l/m 0 min 0 min 0 W/m 8,4 km/h (2 Bft) 93,62 %
30.03.2017 06:34 12,0 C 11,7 C 8,9 C 82 % 0 lf 1024,0 hPa 0,0 l/m 0 min 0 min 0 W/m 8,4 km/h (2 Bft) 94,92 %
30.03.2017 06:36 12,0 C 11,7 C 8,9 C 82 % 0 lf 1024,0 hPa 0,0 l/m 0 min 0 min 0 W/m 8,4 km/h (2 Bft) 94,29 %
30.03.2017 06:38 11,9 C 11,7 C 8,9 C 82 % 0 lf 1024,0 hPa 0,0 l/m 0 min 0 min 0 W/m 8,4 km/h (2 Bft) 100,00 %
30.03.2017 06:40 11,9 C 11,7 C 8,9 C 82 % 0 lf 1024,0 hPa 0,0 l/m 0 min 0 min 0 W/m 10,5 km/h (2 Bft) 100,00 %
30.03.2017 06:42 11,9 C 11,7 C 8,9 C 82 % 0 lf 1023,9 hPa 0,0 l/m 0 min 0 min 0 W/m 6,3 km/h (2 Bft) 100,00 %
30.03.2017 06:44 11,9 C 11,7 C 8,9 C 83 % 0 lf 1023,9 hPa 0,0 l/m 0 min 0 min 0 W/m 8,4 km/h (2 Bft) 94,29 %
30.03.2017 06:46 11,9 C 11,7 C 8,9 C 83 % 0 lf 1024,0 hPa 0,0 l/m 0 min 0 min 0 W/m 8,4 km/h (2 Bft) 96,61 %
30.03.2017 06:48 11,8 C 11,7 C 8,9 C 83 % 0 lf 1024,0 hPa 0,0 l/m 0 min 0 min 0 W/m 6,3 km/h (2 Bft) 100,00 %
30.03.2017 06:50 11,8 C 11,7 C 9,4 C 83 % 0 lf 1024,0 hPa 0,0 l/m 0 min 0 min 0 W/m 6,3 km/h (2 Bft) 95,74 %
30.03.2017 06:52 11,8 C 11,7 C 9,4 C 83 % 0 lf 1024,0 hPa 0,0 l/m 0 min 0 min 0 W/m 8,4 km/h (2 Bft) 100,00 %
30.03.2017 06:54 11,8 C 11,7 C 9,4 C 83 % 0 lf 1024,0 hPa 0,0 l/m 0 min 0 min 0 W/m 8,4 km/h (2 Bft) 97,87 %
30.03.2017 06:56 11,8 C 11,7 C 9,4 C 83 % 0 lf 1024,0 hPa 0,0 l/m 0 min 0 min 0 W/m 6,3 km/h (2 Bft) 97,87 %
30.03.2017 06:58 11,8 C 11,7 C 9,4 C 83 % 0 lf 1024,0 hPa 0,0 l/m 0 min 0 min 0 W/m 6,3 km/h (2 Bft) 100,00 %
30.03.2017 07:00 11,8 C 11,7 C 9,4 C 83 % 0 lf 1024,0 hPa 0,0 l/m 0 min 0 min 0 W/m 4,2 km/h (1 Bft) 96,55 %
30.03.2017 07:02 11,7 C 11,7 C 9,4 C 83 % 0 lf 1023,9 hPa 0,0 l/m 0 min 0 min 0 W/m 8,4 km/h (2 Bft) 97,87 %
30.03.2017 07:04 11,7 C 11,7 C 9,4 C 83 % 0 lf 1024,0 hPa 0,0 l/m 0 min 0 min 0 W/m 6,3 km/h (2 Bft) 95,74 %
30.03.2017 07:06 11,7 C 11,7 C 9,4 C 84 % 0 lf 1024,0 hPa 0,0 l/m 0 min 0 min 0 W/m 6,3 km/h (2 Bft) 97,87 %
30.03.2017 07:08 11,7 C 11,7 C 9,4 C 84 % 0 lf 1024,0 hPa 0,0 l/m 0 min 0 min 4 W/m 6,3 km/h (2 Bft) 97,14 %
30.03.2017 07:10 11,7 C 11,7 C 9,4 C 84 % 0 lf 1024,0 hPa 0,0 l/m 0 min 0 min 5 W/m 6,3 km/h (2 Bft) 100,00 %
30.03.2017 07:12 11,7 C 11,7 C 9,4 C 84 % 0 lf 1024,0 hPa 0,0 l/m 0 min 0 min 5 W/m 6,3 km/h (2 Bft) 98,28 %
30.03.2017 07:14 11,7 C 11,7 C 9,4 C 84 % 0 lf 1024,0 hPa 0,0 l/m 0 min 0 min 6 W/m 6,3 km/h (2 Bft) 97,87 %
30.03.2017 07:16 11,7 C 11,7 C 9,4 C 84 % 0 lf 1024,0 hPa 0,0 l/m 0 min 0 min 7 W/m 6,3 km/h (2 Bft) 93,62 %
30.03.2017 07:18 11,7 C 11,7 C 9,4 C 84 % 0 lf 1024,0 hPa 0,0 l/m 0 min 0 min 8 W/m 6,3 km/h (2 Bft) 95,74 %
30.03.2017 07:20 11,7 C 11,7 C 9,4 C 84 % 0 lf 1024,0 hPa 0,0 l/m 0 min 0 min 9 W/m 6,3 km/h (2 Bft) 97,87 %
30.03.2017 07:22 11,7 C 11,7 C 9,4 C 84 % 0 lf 1024,0 hPa 0,0 l/m 0 min 0 min 9 W/m 6,3 km/h (2 Bft) 95,74 %
30.03.2017 07:24 11,7 C 11,7 C 9,4 C 84 % 0 lf 1024,0 hPa 0,0 l/m 0 min 0 min 11 W/m 8,4 km/h (2 Bft) 97,83 %
30.03.2017 07:26 11,6 C 11,7 C 9,4 C 84 % 0 lf 1024,0 hPa 0,0 l/m 0 min 0 min 12 W/m 6,3 km/h (2 Bft) 97,14 %
30.03.2017 07:28 11,6 C 11,7 C 9,4 C 84 % 0 lf 1024,0 hPa 0,0 l/m 0 min 0 min 12 W/m 6,3 km/h (2 Bft) 97,87 %
30.03.2017 07:30 11,6 C 11,7 C 9,4 C 84 % 0 lf 1024,0 hPa 0,0 l/m 0 min 0 min 15 W/m 6,3 km/h (2 Bft) 94,92 %
30.03.2017 07:32 11,6 C 11,7 C 9,4 C 84 % 0 lf 1024,0 hPa 0,0 l/m 0 min 0 min 17 W/m 8,4 km/h (2 Bft) 97,87 %
30.03.2017 07:34 11,6 C 11,7 C 9,4 C 84 % 0 lf 1024,1 hPa 0,0 l/m 0 min 0 min 19 W/m 6,3 km/h (2 Bft) 85,71 %
30.03.2017 07:36 11,6 C 11,7 C 9,4 C 84 % 0 lf 1024,0 hPa 0,0 l/m 0 min 0 min 21 W/m 6,3 km/h (2 Bft) 94,83 %
30.03.2017 07:38 11,6 C 11,7 C 9,4 C 84 % 0 lf 1024,1 hPa 0,0 l/m 0 min 0 min 24 W/m 6,3 km/h (2 Bft) 95,74 %
30.03.2017 07:40 11,6 C 11,7 C 9,4 C 84 % 0 lf 1024,1 hPa 0,0 l/m 0 min 0 min 26 W/m 6,3 km/h (2 Bft) 97,87 %
30.03.2017 07:42 11,6 C 11,7 C 9,4 C 84 % 0 lf 1024,1 hPa 0,0 l/m 0 min 0 min 26 W/m 6,3 km/h (2 Bft) 93,62 %
30.03.2017 07:44 11,6 C 11,7 C 9,4 C 84 % 0 lf 1024,1 hPa 0,0 l/m 0 min 0 min 26 W/m 6,3 km/h (2 Bft) 95,74 %
30.03.2017 07:46 11,5 C 11,7 C 9,4 C 84 % 0 lf 1024,1 hPa 0,0 l/m 0 min 0 min 26 W/m 6,3 km/h (2 Bft) 95,65 %
30.03.2017 07:48 11,5 C 11,7 C 9,4 C 84 % 0 lf 1024,1 hPa 0,0 l/m 0 min 0 min 30 W/m 6,3 km/h (2 Bft) 95,74 %
30.03.2017 07:50 11,5 C 11,7 C 9,4 C 84 % 0 lf 1024,1 hPa 0,0 l/m 0 min 0 min 34 W/m 6,3 km/h (2 Bft) 89,36 %
30.03.2017 07:52 11,5 C 11,7 C 9,4 C 85 % 0 lf 1024,1 hPa 0,0 l/m 0 min 0 min 39 W/m 8,4 km/h (2 Bft) 95,74 %
30.03.2017 07:54 11,5 C 11,7 C 9,4 C 85 % 0 lf 1024,1 hPa 0,0 l/m 0 min 0 min 41 W/m 8,4 km/h (2 Bft) 95,74 %
30.03.2017 07:56 11,5 C 11,7 C 9,4 C 85 % 0 lf 1024,1 hPa 0,0 l/m 0 min 0 min 43 W/m 8,4 km/h (2 Bft) 93,62 %
30.03.2017 07:58 11,5 C 11,7 C 9,4 C 85 % 0 lf 1024,1 hPa 0,0 l/m 0 min 0 min 45 W/m 8,4 km/h (2 Bft) 95,65 %
30.03.2017 08:00 11,4 C 11,7 C 9,4 C 85 % 0 lf 1024,2 hPa 0,0 l/m 0 min 0 min 48 W/m 10,5 km/h (2 Bft) 94,44 %
30.03.2017 08:02 11,4 C 11,7 C 9,4 C 85 % 0 lf 1024,2 hPa 0,0 l/m 0 min 0 min 51 W/m 8,4 km/h (2 Bft) 95,65 %
30.03.2017 08:04 11,4 C 11,7 C 9,4 C 85 % 0 lf 1024,2 hPa 0,0 l/m 0 min 0 min 54 W/m 6,3 km/h (2 Bft) 97,87 %
30.03.2017 08:06 11,4 C 11,7 C 10,0 C 85 % 0 lf 1024,2 hPa 0,0 l/m 0 min 0 min 56 W/m 10,5 km/h (2 Bft) 94,92 %
30.03.2017 08:08 11,4 C 11,7 C 10,0 C 85 % 0 lf 1024,2 hPa 0,0 l/m 0 min 0 min 59 W/m 8,4 km/h (2 Bft) 97,14 %
30.03.2017 08:10 11,4 C 11,7 C 10,0 C 85 % 0 lf 1024,2 hPa 0,0 l/m 0 min 0 min 63 W/m 6,3 km/h (2 Bft) 96,55 %
30.03.2017 08:12 11,4 C 11,7 C 10,0 C 85 % 0 lf 1024,2 hPa 0,0 l/m 0 min 0 min 69 W/m 8,4 km/h (2 Bft) 97,22 %
30.03.2017 08:14 11,4 C 11,7 C 10,0 C 85 % 0 lf 1024,2 hPa 0,0 l/m 2 min 0 min 74 W/m 8,4 km/h (2 Bft) 100,00 %
30.03.2017 08:16 11,4 C 12,2 C 10,0 C 85 % 0 lf 1024,2 hPa 0,0 l/m 2 min 0 min 78 W/m 8,4 km/h (2 Bft) 95,74 %
30.03.2017 08:18 11,4 C 12,2 C 10,0 C 85 % 0 lf 1024,3 hPa 0,0 l/m 2 min 0 min 93 W/m 4,2 km/h (1 Bft) 95,74 %
30.03.2017 08:20 11,4 C 12,2 C 10,0 C 85 % 0 lf 1024,2 hPa 0,0 l/m 2 min 0 min 109 W/m 6,3 km/h (2 Bft) 100,00 %
30.03.2017 08:22 11,4 C 12,2 C 10,0 C 85 % 0 lf 1024,2 hPa 0,0 l/m 2 min 0 min 106 W/m 6,3 km/h (2 Bft) 100,00 %
30.03.2017 08:24 11,4 C 12,2 C 10,0 C 86 % 0 lf 1024,2 hPa 0,0 l/m 0 min 0 min 82 W/m 8,4 km/h (2 Bft) 89,66 %
30.03.2017 08:26 11,4 C 12,2 C 10,0 C 85 % 0 lf 1024,3 hPa 0,0 l/m 0 min 0 min 82 W/m 8,4 km/h (2 Bft) 100,00 %
30.03.2017 08:28 11,4 C 12,2 C 10,0 C 86 % 0 lf 1024,3 hPa 0,0 l/m 0 min 0 min 86 W/m 6,3 km/h (2 Bft) 97,50 %
30.03.2017 08:30 11,4 C 12,2 C 10,0 C 86 % 0 lf 1024,3 hPa 0,0 l/m 0 min 0 min 88 W/m 8,4 km/h (2 Bft) 97,87 %
30.03.2017 08:32 11,4 C 12,2 C 10,0 C 86 % 0 lf 1024,3 hPa 0,0 l/m 0 min 0 min 89 W/m 10,5 km/h (2 Bft) 95,65 %
30.03.2017 08:34 11,4 C 12,2 C 10,0 C 86 % 0 lf 1024,3 hPa 0,0 l/m 0 min 0 min 93 W/m 8,4 km/h (2 Bft) 97,87 %
30.03.2017 08:36 11,4 C 12,2 C 10,6 C 86 % 0 lf 1024,3 hPa 0,0 l/m 0 min 0 min 96 W/m 10,5 km/h (2 Bft) 97,87 %
30.03.2017 08:38 11,4 C 12,8 C 10,6 C 86 % 0 lf 1024,3 hPa 0,0 l/m 2 min 0 min 109 W/m 8,4 km/h (2 Bft) 95,74 %
30.03.2017 08:40 11,4 C 12,8 C 10,6 C 86 % 0 lf 1024,3 hPa 0,0 l/m 0 min 0 min 106 W/m 12,6 km/h (3 Bft) 95,74 %
30.03.2017 08:42 11,5 C 12,8 C 10,6 C 86 % 0 lf 1024,3 hPa 0,0 l/m 2 min 0 min 126 W/m 8,4 km/h (2 Bft) 93,48 %
30.03.2017 08:44 11,5 C 13,3 C 10,6 C 86 % 0 lf 1024,3 hPa 0,0 l/m 2 min 0 min 150 W/m 8,4 km/h (2 Bft) 95,74 %
30.03.2017 08:46 11,5 C 13,9 C 11,1 C 86 % 0 lf 1024,3 hPa 0,0 l/m 2 min 0 min 171 W/m 8,4 km/h (2 Bft) 95,74 %
30.03.2017 08:48 11,6 C 14,4 C 11,1 C 86 % 0 lf 1024,3 hPa 0,0 l/m 2 min 0 min 210 W/m 12,6 km/h (3 Bft) 95,74 %
30.03.2017 08:50 11,6 C 16,1 C 11,7 C 87 % 0 lf 1024,2 hPa 0,0 l/m 2 min 0 min 247 W/m 10,5 km/h (2 Bft) 95,74 %
30.03.2017 08:52 11,7 C 16,7 C 11,7 C 87 % 0 lf 1024,2 hPa 0,0 l/m 2 min 0 min 252 W/m 8,4 km/h (2 Bft) 95,74 %
30.03.2017 08:54 11,8 C 17,8 C 11,7 C 87 % 0 lf 1024,2 hPa 0,0 l/m 2 min 0 min 253 W/m 10,5 km/h (2 Bft) 95,65 %
30.03.2017 08:56 11,9 C 16,1 C 11,7 C 87 % 0 lf 1024,2 hPa 0,0 l/m 2 min 0 min 215 W/m 10,5 km/h (2 Bft) 91,49 %
30.03.2017 08:58 11,9 C 15,0 C 11,7 C 87 % 0 lf 1024,2 hPa 0,0 l/m 0 min 0 min 121 W/m 10,5 km/h (2 Bft) 95,74 %
30.03.2017 09:00 12,0 C 14,4 C 11,7 C 86 % 0 lf 1024,2 hPa 0,0 l/m 0 min 0 min 120 W/m 10,5 km/h (2 Bft) 95,74 %
30.03.2017 09:02 12,1 C 14,4 C 11,7 C 86 % 0 lf 1024,2 hPa 0,0 l/m 0 min 0 min 115 W/m 10,5 km/h (2 Bft) 95,74 %
30.03.2017 09:04 12,1 C 13,9 C 11,7 C 86 % 0 lf 1024,2 hPa 0,0 l/m 0 min 0 min 112 W/m 10,5 km/h (2 Bft) 95,74 %
30.03.2017 09:06 12,2 C 13,9 C 11,7 C 86 % 0 lf 1024,2 hPa 0,0 l/m 0 min 0 min 122 W/m 10,5 km/h (2 Bft) 93,48 %
30.03.2017 09:08 12,2 C 14,4 C 11,7 C 86 % 0 lf 1024,2 hPa 0,0 l/m 2 min 0 min 170 W/m 10,5 km/h (2 Bft) 95,74 %
30.03.2017 09:10 12,3 C 14,4 C 12,2 C 85 % 0 lf 1024,2 hPa 0,0 l/m 2 min 0 min 147 W/m 10,5 km/h (2 Bft) 95,92 %
30.03.2017 09:12 12,3 C 14,4 C 12,2 C 85 % 0 lf 1024,2 hPa 0,0 l/m 2 min 0 min 167 W/m 10,5 km/h (2 Bft) 93,62 %
30.03.2017 09:14 12,4 C 15,6 C 12,2 C 85 % 0 lf 1024,2 hPa 0,0 l/m 2 min 0 min 205 W/m 8,4 km/h (2 Bft) 95,74 %
30.03.2017 09:16 12,4 C 15,6 C 12,8 C 85 % 0 lf 1024,1 hPa 0,0 l/m 2 min 0 min 225 W/m 8,4 km/h (2 Bft) 93,62 %
30.03.2017 09:18 12,5 C 15,0 C 12,8 C 85 % 0 lf 1024,1 hPa 0,0 l/m 2 min 0 min 176 W/m 14,6 km/h (3 Bft) 95,74 %
30.03.2017 09:20 12,6 C 14,4 C 12,8 C 85 % 0 lf 1024,2 hPa 0,0 l/m 0 min 0 min 152 W/m 12,6 km/h (3 Bft) 95,74 %
30.03.2017 09:22 12,6 C 14,4 C 12,8 C 85 % 0 lf 1024,1 hPa 0,0 l/m 0 min 0 min 151 W/m 10,5 km/h (2 Bft) 93,48 %
30.03.2017 09:24 12,7 C 14,4 C 12,8 C 85 % 0 lf 1024,2 hPa 0,0 l/m 0 min 0 min 154 W/m 10,5 km/h (2 Bft) 95,74 %
30.03.2017 09:26 12,7 C 14,4 C 12,8 C 85 % 0 lf 1024,2 hPa 0,0 l/m 0 min 0 min 161 W/m 10,5 km/h (2 Bft) 93,62 %
30.03.2017 09:28 12,8 C 14,4 C 13,3 C 84 % 0 lf 1024,2 hPa 0,0 l/m 0 min 0 min 163 W/m 10,5 km/h (2 Bft) 97,87 %
30.03.2017 09:30 12,8 C 15,0 C 13,3 C 84 % 0 lf 1024,3 hPa 0,0 l/m 0 min 0 min 163 W/m 6,3 km/h (2 Bft) 97,87 %
30.03.2017 09:32 12,9 C 15,0 C 13,3 C 84 % 0 lf 1024,2 hPa 0,0 l/m 0 min 0 min 163 W/m 6,3 km/h (2 Bft) 97,87 %
30.03.2017 09:34 12,9 C 15,0 C 13,9 C 84 % 0 lf 1024,3 hPa 0,0 l/m 0 min 0 min 164 W/m 8,4 km/h (2 Bft) 100,00 %
30.03.2017 09:36 13,0 C 14,4 C 13,9 C 84 % 0 lf 1024,3 hPa 0,0 l/m 0 min 0 min 167 W/m 12,6 km/h (3 Bft) 97,87 %
30.03.2017 09:38 13,0 C 14,4 C 13,9 C 84 % 0 lf 1024,4 hPa 0,0 l/m 0 min 0 min 169 W/m 10,5 km/h (2 Bft) 97,87 %
30.03.2017 09:40 13,1 C 14,4 C 13,9 C 84 % 0 lf 1024,4 hPa 0,0 l/m 0 min 0 min 170 W/m 6,3 km/h (2 Bft) 97,87 %
30.03.2017 09:42 13,1 C 15,0 C 13,9 C 84 % 0 lf 1024,3 hPa 0,0 l/m 0 min 0 min 166 W/m 6,3 km/h (2 Bft) 95,74 %
30.03.2017 09:44 13,2 C 15,0 C 13,9 C 84 % 0 lf 1024,4 hPa 0,0 l/m 0 min 0 min 162 W/m 6,3 km/h (2 Bft) 97,87 %
30.03.2017 09:46 13,2 C 15,0 C 14,4 C 84 % 0 lf 1024,5 hPa 0,0 l/m 0 min 0 min 157 W/m 8,4 km/h (2 Bft) 97,83 %
30.03.2017 09:48 13,2 C 15,0 C 14,4 C 83 % 0 lf 1024,4 hPa 0,0 l/m 0 min 0 min 157 W/m 8,4 km/h (2 Bft) 97,87 %
30.03.2017 09:50 13,3 C 15,0 C 14,4 C 84 % 0 lf 1024,4 hPa 0,0 l/m 0 min 0 min 163 W/m 10,5 km/h (2 Bft) 93,62 %
30.03.2017 09:52 13,3 C 15,0 C 14,4 C 83 % 0 lf 1024,3 hPa 0,0 l/m 0 min 0 min 169 W/m 10,5 km/h (2 Bft) 95,74 %
30.03.2017 09:54 13,4 C 15,0 C 14,4 C 83 % 0 lf 1024,4 hPa 0,0 l/m 0 min 0 min 173 W/m 10,5 km/h (2 Bft) 95,74 %
30.03.2017 09:56 13,4 C 15,0 C 14,4 C 83 % 0 lf 1024,4 hPa 0,0 l/m 0 min 0 min 178 W/m 12,6 km/h (3 Bft) 93,48 %
30.03.2017 09:58 13,5 C 15,0 C 15,0 C 83 % 0 lf 1024,4 hPa 0,0 l/m 0 min 0 min 183 W/m 12,6 km/h (3 Bft) 97,87 %
30.03.2017 10:00 13,6 C 15,0 C 15,0 C 83 % 0 lf 1024,3 hPa 0,0 l/m 0 min 0 min 189 W/m 14,6 km/h (3 Bft) 95,74 %
30.03.2017 10:02 13,6 C 15,6 C 15,0 C 82 % 0 lf 1024,4 hPa 0,0 l/m 0 min 0 min 202 W/m 10,5 km/h (2 Bft) 97,87 %
30.03.2017 10:04 13,7 C 15,6 C 15,0 C 82 % 0 lf 1024,3 hPa 0,0 l/m 2 min 0 min 216 W/m 12,6 km/h (3 Bft) 95,74 %
30.03.2017 10:06 13,7 C 15,6 C 15,6 C 82 % 0 lf 1024,3 hPa 0,0 l/m 2 min 0 min 232 W/m 12,6 km/h (3 Bft) 93,62 %
30.03.2017 10:08 13,8 C 16,7 C 15,6 C 82 % 0 lf 1024,3 hPa 0,0 l/m 2 min 0 min 243 W/m 14,6 km/h (3 Bft) 91,30 %
30.03.2017 10:10 13,9 C 16,7 C 16,1 C 82 % 0 lf 1024,3 hPa 0,0 l/m 2 min 0 min 258 W/m 12,6 km/h (3 Bft) 95,83 %
30.03.2017 10:12 13,9 C 16,7 C 16,1 C 82 % 0 lf 1024,3 hPa 0,0 l/m 2 min 0 min 267 W/m 10,5 km/h (2 Bft) 95,74 %
30.03.2017 10:14 14,1 C 16,7 C 16,7 C 81 % 0 lf 1024,3 hPa 0,0 l/m 2 min 0 min 268 W/m 10,5 km/h (2 Bft) 95,74 %
30.03.2017 10:16 14,2 C 17,2 C 16,7 C 81 % 0 lf 1024,3 hPa 0,0 l/m 2 min 0 min 276 W/m 10,5 km/h (2 Bft) 95,65 %
30.03.2017 10:18 14,2 C 17,2 C 16,7 C 81 % 0 lf 1024,3 hPa 0,0 l/m 2 min 0 min 296 W/m 8,4 km/h (2 Bft) 93,62 %
30.03.2017 10:20 14,2 C 17,8 C 17,2 C 81 % 0 lf 1024,3 hPa 0,0 l/m 2 min 0 min 297 W/m 12,6 km/h (3 Bft) 97,87 %
30.03.2017 10:22 14,4 C 18,3 C 17,2 C 81 % 0 lf 1024,4 hPa 0,0 l/m 2 min 0 min 309 W/m 8,4 km/h (2 Bft) 95,74 %
30.03.2017 10:24 14,5 C 18,3 C 17,8 C 80 % 0 lf 1024,3 hPa 0,0 l/m 2 min 0 min 324 W/m 6,3 km/h (2 Bft) 95,74 %
30.03.2017 10:26 14,6 C 18,9 C 17,8 C 80 % 0 lf 1024,3 hPa 0,0 l/m 2 min 0 min 340 W/m 8,4 km/h (2 Bft) 97,87 %
30.03.2017 10:28 14,7 C 18,9 C 17,8 C 80 % 0 lf 1024,3 hPa 0,0 l/m 2 min 0 min 280 W/m 10,5 km/h (2 Bft) 97,83 %
30.03.2017 10:30 14,9 C 18,9 C 17,8 C 80 % 0 lf 1024,3 hPa 0,0 l/m 2 min 0 min 248 W/m 8,4 km/h (2 Bft) 95,74 %
30.03.2017 10:32 14,9 C 18,9 C 17,8 C 80 % 0 lf 1024,3 hPa 0,0 l/m 2 min 0 min 263 W/m 6,3 km/h (2 Bft) 95,74 %
30.03.2017 10:34 15,1 C 20,0 C 17,8 C 80 % 0 lf 1024,3 hPa 0,0 l/m 2 min 0 min 307 W/m 8,4 km/h (2 Bft) 97,87 %
30.03.2017 10:36 15,2 C 21,7 C 18,9 C 80 % 0 lf 1024,3 hPa 0,0 l/m 2 min 0 min 325 W/m 8,4 km/h (2 Bft) 97,87 %
30.03.2017 10:38 15,4 C 22,2 C 20,0 C 79 % 0 lf 1024,3 hPa 0,0 l/m 2 min 0 min 325 W/m 6,3 km/h (2 Bft) 97,83 %
30.03.2017 10:40 15,6 C 21,7 C 19,4 C 79 % 0 lf 1024,3 hPa 0,0 l/m 2 min 0 min 292 W/m 8,4 km/h (2 Bft) 97,87 %
30.03.2017 10:42 15,7 C 20,6 C 18,9 C 78 % 0 lf 1024,4 hPa 0,0 l/m 2 min 0 min 282 W/m 8,4 km/h (2 Bft) 97,87 %
30.03.2017 10:44 15,8 C 20,6 C 18,9 C 78 % 0 lf 1024,3 hPa 0,0 l/m 2 min 0 min 299 W/m 8,4 km/h (2 Bft) 95,74 %
30.03.2017 10:46 15,9 C 21,1 C 18,9 C 77 % 0 lf 1024,3 hPa 0,0 l/m 2 min 0 min 332 W/m 6,3 km/h (2 Bft) 97,87 %
30.03.2017 10:48 16,1 C 20,6 C 18,9 C 77 % 0 lf 1024,4 hPa 0,0 l/m 2 min 0 min 304 W/m 12,6 km/h (3 Bft) 91,49 %
30.03.2017 10:50 16,2 C 20,6 C 18,9 C 75 % 0 lf 1024,3 hPa 0,0 l/m 2 min 0 min 334 W/m 8,4 km/h (2 Bft) 97,83 %
30.03.2017 10:52 16,3 C 21,7 C 18,9 C 75 % 0 lf 1024,3 hPa 0,0 l/m 2 min 0 min 303 W/m 10,5 km/h (2 Bft) 95,74 %
30.03.2017 10:54 16,4 C 22,8 C 18,9 C 75 % 0 lf 1024,2 hPa 0,0 l/m 2 min 0 min 288 W/m 2,1 km/h (1 Bft) 100,00 %
30.03.2017 10:56 16,6 C 22,2 C 18,9 C 74 % 0 lf 1024,3 hPa 0,0 l/m 2 min 0 min 350 W/m 10,5 km/h (2 Bft) 97,87 %
30.03.2017 10:58 16,6 C 23,9 C 20,0 C 74 % 0 lf 1024,2 hPa 0,0 l/m 2 min 0 min 331 W/m 8,4 km/h (2 Bft) 95,74 %
30.03.2017 11:00 16,8 C 22,8 C 21,1 C 73 % 0 lf 1024,2 hPa 0,0 l/m 2 min 0 min 384 W/m 14,6 km/h (3 Bft) 93,62 %
30.03.2017 11:02 16,9 C 25,0 C 21,7 C 73 % 0 lf 1024,2 hPa 0,0 l/m 2 min 0 min 478 W/m 12,6 km/h (3 Bft) 97,83 %
30.03.2017 11:04 17,1 C 25,0 C 22,2 C 72 % 0 lf 1024,2 hPa 0,0 l/m 2 min 0 min 497 W/m 10,5 km/h (2 Bft) 100,00 %
30.03.2017 11:06 17,3 C 25,6 C 22,2 C 71 % 0 lf 1024,2 hPa 0,0 l/m 2 min 0 min 418 W/m 10,5 km/h (2 Bft) 97,87 %
30.03.2017 11:08 17,5 C 23,9 C 22,2 C 70 % 0 lf 1024,2 hPa 0,0 l/m 2 min 0 min 389 W/m 10,5 km/h (2 Bft) 100,00 %
30.03.2017 11:10 17,7 C 23,9 C 22,2 C 69 % 0 lf 1024,1 hPa 0,0 l/m 2 min 0 min 460 W/m 12,6 km/h (3 Bft) 97,87 %
30.03.2017 11:12 17,9 C 25,0 C 22,8 C 69 % 0 lf 1024,1 hPa 0,0 l/m 2 min 0 min 443 W/m 14,6 km/h (3 Bft) 100,00 %
30.03.2017 11:14 18,1 C 25,0 C 22,2 C 69 % 0 lf 1024,1 hPa 0,0 l/m 2 min 0 min 406 W/m 12,6 km/h (3 Bft) 100,00 %
30.03.2017 11:16 18,2 C 25,0 C 21,7 C 68 % 0 lf 1024,1 hPa 0,0 l/m 2 min 0 min 378 W/m 10,5 km/h (2 Bft) 97,87 %
30.03.2017 11:18 18,3 C 25,6 C 21,7 C 68 % 0 lf 1024,1 hPa 0,0 l/m 2 min 0 min 405 W/m 12,6 km/h (3 Bft) 95,74 %
30.03.2017 11:20 18,4 C 27,2 C 21,7 C 67 % 0 lf 1024,1 hPa 0,0 l/m 2 min 0 min 419 W/m 18,8 km/h (3 Bft) 100,00 %
30.03.2017 11:22 18,6 C 26,7 C 22,2 C 67 % 0 lf 1024,1 hPa 0,0 l/m 2 min 0 min 411 W/m 14,6 km/h (3 Bft) 100,00 %
30.03.2017 11:24 18,7 C 27,8 C 23,3 C 67 % 0 lf 1024,1 hPa 0,0 l/m 2 min 0 min 491 W/m 12,6 km/h (3 Bft) 97,87 %
30.03.2017 11:26 18,8 C 26,7 C 23,9 C 66 % 0 lf 1024,1 hPa 0,0 l/m 2 min 0 min 659 W/m 14,6 km/h (3 Bft) 100,00 %
30.03.2017 11:28 19,0 C 26,7 C 23,3 C 65 % 0 lf 1024,1 hPa 0,0 l/m 2 min 0 min 573 W/m 14,6 km/h (3 Bft) 95,74 %
30.03.2017 11:30 19,1 C 27,2 C 23,3 C 64 % 0 lf 1024,1 hPa 0,0 l/m 2 min 0 min 504 W/m 16,7 km/h (3 Bft) 97,87 %
30.03.2017 11:32 19,3 C 27,2 C 23,9 C 64 % 0 lf 1024,1 hPa 0,0 l/m 2 min 0 min 631 W/m 12,6 km/h (3 Bft) 93,48 %
30.03.2017 11:34 19,4 C 28,3 C 23,9 C 65 % 0 lf 1024,1 hPa 0,0 l/m 2 min 0 min 706 W/m 18,8 km/h (3 Bft) 100,00 %
30.03.2017 11:36 19,5 C 27,8 C 23,3 C 63 % 0 lf 1024,1 hPa 0,0 l/m 2 min 0 min 610 W/m 18,8 km/h (3 Bft) 100,00 %
30.03.2017 11:38 19,6 C 26,7 C 23,3 C 63 % 0 lf 1024,1 hPa 0,0 l/m 2 min 0 min 490 W/m 18,8 km/h (3 Bft) 95,74 %
30.03.2017 11:40 19,7 C 25,0 C 22,2 C 62 % 0 lf 1024,1 hPa 0,0 l/m 2 min 0 min 502 W/m 20,9 km/h (4 Bft) 95,74 %
30.03.2017 11:42 19,7 C 23,9 C 21,1 C 61 % 0 lf 1024,1 hPa 0,0 l/m 2 min 0 min 348 W/m 25,1 km/h (4 Bft) 97,83 %
30.03.2017 11:44 19,7 C 23,3 C 20,6 C 61 % 0 lf 1024,1 hPa 0,0 l/m 2 min 0 min 356 W/m 25,1 km/h (4 Bft) 95,74 %
30.03.2017 11:46 19,7 C 23,9 C 21,1 C 61 % 0 lf 1024,1 hPa 0,0 l/m 2 min 0 min 407 W/m 14,6 km/h (3 Bft) 97,87 %
30.03.2017 11:48 19,7 C 23,9 C 21,7 C 62 % 0 lf 1024,1 hPa 0,0 l/m 2 min 0 min 483 W/m 18,8 km/h (3 Bft) 95,74 %
30.03.2017 11:50 19,8 C 25,0 C 22,2 C 61 % 0 lf 1024,0 hPa 0,0 l/m 2 min 0 min 560 W/m 23,0 km/h (4 Bft) 93,62 %
30.03.2017 11:52 19,8 C 25,0 C 22,2 C 62 % 0 lf 1024,0 hPa 0,0 l/m 2 min 0 min 515 W/m 20,9 km/h (4 Bft) 95,74 %
30.03.2017 11:54 19,8 C 24,4 C 22,8 C 62 % 0 lf 1024,0 hPa 0,0 l/m 2 min 0 min 491 W/m 20,9 km/h (4 Bft) 93,48 %
30.03.2017 11:56 19,9 C 24,4 C 22,8 C 61 % 0 lf 1023,9 hPa 0,0 l/m 2 min 0 min 429 W/m 20,9 km/h (4 Bft) 91,49 %
30.03.2017 11:58 19,9 C 23,9 C 22,2 C 61 % 0 lf 1023,9 hPa 0,0 l/m 2 min 0 min 391 W/m 20,9 km/h (4 Bft) 91,49 %
30.03.2017 12:00 19,9 C 24,4 C 22,2 C 61 % 0 lf 1023,9 hPa 0,0 l/m 2 min 0 min 405 W/m 12,6 km/h (3 Bft) 91,49 %
30.03.2017 12:02 20,0 C 25,0 C 22,2 C 61 % 0 lf 1023,9 hPa 0,0 l/m 2 min 0 min 434 W/m 20,9 km/h (4 Bft) 93,62 %
30.03.2017 12:04 20,1 C 24,4 C 22,2 C 60 % 0 lf 1023,9 hPa 0,0 l/m 2 min 0 min 487 W/m 27,2 km/h (4 Bft) 91,49 %
30.03.2017 12:06 20,1 C 24,4 C 21,7 C 59 % 0 lf 1023,9 hPa 0,0 l/m 2 min 0 min 483 W/m 25,1 km/h (4 Bft) 91,30 %
30.03.2017 12:10 20,1 C 26,1 C 22,2 C 59 % 0 lf 1023,9 hPa 0,0 l/m 2 min 0 min 518 W/m 18,8 km/h (3 Bft) 91,75 %
30.03.2017 12:12 20,1 C 26,7 C 22,2 C 59 % 0 lf 1023,9 hPa 0,0 l/m 2 min 0 min 548 W/m 25,1 km/h (4 Bft) 93,62 %
30.03.2017 12:14 20,2 C 25,6 C 22,2 C 59 % 0 lf 1023,8 hPa 0,0 l/m 2 min 0 min 645 W/m 25,1 km/h (4 Bft) 89,36 %
30.03.2017 12:16 20,2 C 25,6 C 22,2 C 59 % 0 lf 1023,8 hPa 0,0 l/m 2 min 0 min 484 W/m 27,2 km/h (4 Bft) 93,62 %
30.03.2017 12:18 20,2 C 25,0 C 22,2 C 59 % 0 lf 1023,9 hPa 0,0 l/m 2 min 0 min 506 W/m 25,1 km/h (4 Bft) 95,65 %
30.03.2017 12:20 20,2 C 25,0 C 21,7 C 58 % 0 lf 1023,9 hPa 0,0 l/m 2 min 0 min 558 W/m 25,1 km/h (4 Bft) 91,49 %
30.03.2017 12:22 20,3 C 25,6 C 22,2 C 59 % 0 lf 1023,8 hPa 0,0 l/m 2 min 0 min 545 W/m 14,6 km/h (3 Bft) 91,49 %
30.03.2017 12:24 20,4 C 26,1 C 22,2 C 59 % 0 lf 1023,8 hPa 0,0 l/m 2 min 0 min 612 W/m 18,8 km/h (3 Bft) 93,62 %
30.03.2017 12:26 20,4 C 26,7 C 21,7 C 58 % 0 lf 1023,7 hPa 0,0 l/m 2 min 0 min 634 W/m 18,8 km/h (3 Bft) 93,62 %
30.03.2017 12:28 20,6 C 28,3 C 22,2 C 59 % 0 lf 1023,7 hPa 0,0 l/m 2 min 0 min 531 W/m 14,6 km/h (3 Bft) 93,62 %
30.03.2017 12:30 20,7 C 27,2 C 22,2 C 58 % 0 lf 1023,7 hPa 0,0 l/m 2 min 0 min 667 W/m 20,9 km/h (4 Bft) 93,48 %
30.03.2017 12:32 20,8 C 28,3 C 22,2 C 58 % 0 lf 1023,7 hPa 0,0 l/m 2 min 0 min 694 W/m 18,8 km/h (3 Bft) 93,62 %
30.03.2017 12:34 20,9 C 27,2 C 21,7 C 58 % 0 lf 1023,7 hPa 0,0 l/m 2 min 0 min 694 W/m 27,2 km/h (4 Bft) 93,62 %
30.03.2017 12:36 21,0 C 26,7 C 21,7 C 56 % 0 lf 1023,7 hPa 0,0 l/m 2 min 0 min 622 W/m 23,0 km/h (4 Bft) 95,74 %
30.03.2017 12:38 21,0 C 26,7 C 21,1 C 56 % 0 lf 1023,7 hPa 0,0 l/m 2 min 0 min 412 W/m 25,1 km/h (4 Bft) 97,87 %
30.03.2017 12:40 21,0 C 26,1 C 21,1 C 56 % 0 lf 1023,7 hPa 0,0 l/m 2 min 0 min 392 W/m 18,8 km/h (3 Bft) 97,83 %
30.03.2017 12:42 21,0 C 27,2 C 21,1 C 56 % 0 lf 1023,7 hPa 0,0 l/m 2 min 0 min 579 W/m 20,9 km/h (4 Bft) 95,74 %
30.03.2017 12:44 21,1 C 28,3 C 21,7 C 57 % 0 lf 1023,6 hPa 0,0 l/m 2 min 0 min 630 W/m 18,8 km/h (3 Bft) 95,74 %
30.03.2017 12:46 21,1 C 29,4 C 21,7 C 57 % 0 lf 1023,6 hPa 0,0 l/m 2 min 0 min 704 W/m 23,0 km/h (4 Bft) 97,87 %
30.03.2017 12:48 21,2 C 28,3 C 22,2 C 56 % 0 lf 1023,6 hPa 0,0 l/m 2 min 0 min 695 W/m 14,6 km/h (3 Bft) 93,62 %
30.03.2017 12:50 21,3 C 29,4 C 22,8 C 57 % 0 lf 1023,6 hPa 0,0 l/m 2 min 0 min 633 W/m 14,6 km/h (3 Bft) 95,74 %
30.03.2017 12:52 21,3 C 30,0 C 23,3 C 56 % 0 lf 1023,6 hPa 0,0 l/m 2 min 0 min 712 W/m 14,6 km/h (3 Bft) 97,83 %
30.03.2017 12:54 21,4 C 28,3 C 23,3 C 56 % 0 lf 1023,6 hPa 0,0 l/m 2 min 0 min 664 W/m 20,9 km/h (4 Bft) 95,74 %
30.03.2017 12:56 21,5 C 30,0 C 23,3 C 56 % 0 lf 1023,6 hPa 0,0 l/m 2 min 0 min 621 W/m 12,6 km/h (3 Bft) 95,74 %
30.03.2017 12:58 21,6 C 31,7 C 23,3 C 56 % 0 lf 1023,6 hPa 0,0 l/m 2 min 0 min 721 W/m 23,0 km/h (4 Bft) 100,00 %
30.03.2017 13:00 21,7 C 30,0 C 22,8 C 55 % 0 lf 1023,6 hPa 0,0 l/m 2 min 0 min 745 W/m 25,1 km/h (4 Bft) 97,87 %
30.03.2017 13:02 21,7 C 28,3 C 22,8 C 55 % 0 lf 1023,5 hPa 0,0 l/m 2 min 0 min 705 W/m 23,0 km/h (4 Bft) 95,74 %
30.03.2017 13:04 21,7 C 26,7 C 22,8 C 54 % 0 lf 1023,5 hPa 0,0 l/m 2 min 0 min 738 W/m 33,5 km/h (5 Bft) 97,83 %
30.03.2017 13:06 21,8 C 26,7 C 22,2 C 54 % 0 lf 1023,5 hPa 0,0 l/m 2 min 0 min 767 W/m 23,0 km/h (4 Bft) 95,74 %
30.03.2017 13:08 21,8 C 28,3 C 22,2 C 54 % 0 lf 1023,5 hPa 0,0 l/m 2 min 0 min 683 W/m 23,0 km/h (4 Bft) 97,87 %
30.03.2017 13:10 21,8 C 28,3 C 22,2 C 55 % 0 lf 1023,5 hPa 0,0 l/m 2 min 0 min 716 W/m 29,3 km/h (5 Bft) 97,87 %
30.03.2017 13:12 21,9 C 27,8 C 21,7 C 55 % 0 lf 1023,4 hPa 0,0 l/m 2 min 0 min 722 W/m 18,8 km/h (3 Bft) 97,87 %
30.03.2017 13:14 21,9 C 28,3 C 21,7 C 53 % 0 lf 1023,3 hPa 0,0 l/m 2 min 0 min 710 W/m 23,0 km/h (4 Bft) 95,74 %
30.03.2017 13:16 21,9 C 28,3 C 21,7 C 54 % 0 lf 1023,3 hPa 0,0 l/m 2 min 0 min 682 W/m 16,7 km/h (3 Bft) 97,83 %
30.03.2017 13:18 21,9 C 27,8 C 21,7 C 53 % 0 lf 1023,3 hPa 0,0 l/m 2 min 0 min 711 W/m 27,2 km/h (4 Bft) 95,74 %
30.03.2017 13:20 21,9 C 29,4 C 21,1 C 53 % 0 lf 1023,3 hPa 0,0 l/m 2 min 0 min 710 W/m 23,0 km/h (4 Bft) 97,87 %
30.03.2017 13:22 22,0 C 30,6 C 21,1 C 54 % 0 lf 1023,2 hPa 0,0 l/m 2 min 0 min 717 W/m 18,8 km/h (3 Bft) 97,87 %
30.03.2017 13:24 22,0 C 28,9 C 21,1 C 53 % 0 lf 1023,2 hPa 0,0 l/m 2 min 0 min 693 W/m 20,9 km/h (4 Bft) 95,74 %
30.03.2017 13:26 22,1 C 27,8 C 21,1 C 52 % 0 lf 1023,2 hPa 0,0 l/m 2 min 0 min 680 W/m 25,1 km/h (4 Bft) 100,00 %
30.03.2017 13:28 22,1 C 27,8 C 21,1 C 52 % 0 lf 1023,2 hPa 0,0 l/m 2 min 0 min 704 W/m 25,1 km/h (4 Bft) 100,00 %
30.03.2017 13:30 22,1 C 28,3 C 21,1 C 52 % 0 lf 1023,2 hPa 0,0 l/m 2 min 0 min 705 W/m 23,0 km/h (4 Bft) 93,62 %
30.03.2017 13:32 22,1 C 28,9 C 21,1 C 52 % 0 lf 1023,2 hPa 0,0 l/m 2 min 0 min 712 W/m 23,0 km/h (4 Bft) 95,74 %
30.03.2017 13:34 22,1 C 27,8 C 21,1 C 52 % 0 lf 1023,2 hPa 0,0 l/m 2 min 0 min 713 W/m 25,1 km/h (4 Bft) 100,00 %
30.03.2017 13:36 22,1 C 27,8 C 21,1 C 51 % 0 lf 1023,2 hPa 0,0 l/m 2 min 0 min 712 W/m 25,1 km/h (4 Bft) 100,00 %
30.03.2017 13:38 22,1 C 28,9 C 21,1 C 52 % 0 lf 1023,1 hPa 0,0 l/m 2 min 0 min 702 W/m 16,7 km/h (3 Bft) 100,00 %
30.03.2017 13:40 22,2 C 29,4 C 21,1 C 52 % 0 lf 1023,2 hPa 0,0 l/m 2 min 0 min 694 W/m 27,2 km/h (4 Bft) 100,00 %
30.03.2017 13:42 22,2 C 27,8 C 21,1 C 51 % 0 lf 1023,2 hPa 0,0 l/m 2 min 0 min 702 W/m 29,3 km/h (5 Bft) 97,87 %
30.03.2017 13:44 22,2 C 28,3 C 21,1 C 51 % 0 lf 1023,2 hPa 0,0 l/m 2 min 0 min 716 W/m 20,9 km/h (4 Bft) 97,87 %
30.03.2017 13:46 22,2 C 29,4 C 21,1 C 52 % 0 lf 1023,1 hPa 0,0 l/m 2 min 0 min 700 W/m 16,7 km/h (3 Bft) 97,87 %
30.03.2017 13:48 22,3 C 28,9 C 21,1 C 52 % 0 lf 1023,1 hPa 0,0 l/m 2 min 0 min 681 W/m 23,0 km/h (4 Bft) 93,62 %
30.03.2017 13:50 22,3 C 28,3 C 21,1 C 52 % 0 lf 1023,1 hPa 0,0 l/m 2 min 0 min 657 W/m 25,1 km/h (4 Bft) 100,00 %
30.03.2017 13:52 22,3 C 28,3 C 21,1 C 51 % 0 lf 1023,0 hPa 0,0 l/m 2 min 0 min 695 W/m 18,8 km/h (3 Bft) 100,00 %
30.03.2017 13:54 22,4 C 30,6 C 21,1 C 53 % 0 lf 1023,0 hPa 0,0 l/m 2 min 0 min 710 W/m 14,6 km/h (3 Bft) 100,00 %
30.03.2017 13:56 22,4 C 31,1 C 21,1 C 52 % 0 lf 1023,0 hPa 0,0 l/m 2 min 0 min 727 W/m 27,2 km/h (4 Bft) 97,87 %
30.03.2017 13:58 22,5 C 30,6 C 21,1 C 52 % 0 lf 1023,0 hPa 0,0 l/m 2 min 0 min 668 W/m 27,2 km/h (4 Bft) 100,00 %
30.03.2017 14:00 22,5 C 29,4 C 21,1 C 51 % 0 lf 1023,0 hPa 0,0 l/m 2 min 0 min 643 W/m 20,9 km/h (4 Bft) 97,87 %
30.03.2017 14:02 22,5 C 28,3 C 21,1 C 51 % 0 lf 1022,9 hPa 0,0 l/m 2 min 0 min 631 W/m 23,0 km/h (4 Bft) 95,74 %
30.03.2017 14:04 22,4 C 28,3 C 21,1 C 51 % 0 lf 1022,9 hPa 0,0 l/m 2 min 0 min 693 W/m 23,0 km/h (4 Bft) 100,00 %
30.03.2017 14:06 22,4 C 28,3 C 21,1 C 51 % 0 lf 1022,9 hPa 0,0 l/m 2 min 0 min 728 W/m 23,0 km/h (4 Bft) 95,74 %
30.03.2017 14:08 22,5 C 30,0 C 21,1 C 51 % 0 lf 1022,9 hPa 0,0 l/m 2 min 0 min 708 W/m 20,9 km/h (4 Bft) 100,00 %
30.03.2017 14:10 22,6 C 30,6 C 21,1 C 51 % 0 lf 1022,9 hPa 0,0 l/m 2 min 0 min 709 W/m 25,1 km/h (4 Bft) 97,87 %
30.03.2017 14:12 22,6 C 30,6 C 21,7 C 51 % 0 lf 1022,9 hPa 0,0 l/m 2 min 0 min 697 W/m 20,9 km/h (4 Bft) 95,74 %
30.03.2017 14:14 22,6 C 31,7 C 21,7 C 52 % 0 lf 1022,9 hPa 0,0 l/m 2 min 0 min 696 W/m 16,7 km/h (3 Bft) 97,83 %
30.03.2017 14:16 22,6 C 31,1 C 21,1 C 51 % 0 lf 1022,9 hPa 0,0 l/m 2 min 0 min 680 W/m 23,0 km/h (4 Bft) 97,87 %
30.03.2017 14:18 22,7 C 29,4 C 21,1 C 51 % 0 lf 1022,9 hPa 0,0 l/m 2 min 0 min 650 W/m 20,9 km/h (4 Bft) 95,74 %
30.03.2017 14:20 22,7 C 30,6 C 21,1 C 50 % 0 lf 1022,9 hPa 0,0 l/m 2 min 0 min 636 W/m 16,7 km/h (3 Bft) 97,87 %
30.03.2017 14:22 22,7 C 29,4 C 21,1 C 50 % 0 lf 1022,8 hPa 0,0 l/m 2 min 0 min 628 W/m 27,2 km/h (4 Bft) 97,87 %
30.03.2017 14:24 22,7 C 29,4 C 21,1 C 51 % 0 lf 1022,8 hPa 0,0 l/m 2 min 0 min 649 W/m 35,6 km/h (5 Bft) 95,74 %
30.03.2017 14:26 22,7 C 30,0 C 21,1 C 51 % 0 lf 1022,8 hPa 0,0 l/m 2 min 0 min 663 W/m 23,0 km/h (4 Bft) 97,83 %
30.03.2017 14:28 22,7 C 29,4 C 21,1 C 50 % 0 lf 1022,8 hPa 0,0 l/m 2 min 0 min 645 W/m 29,3 km/h (5 Bft) 97,87 %
30.03.2017 14:30 22,7 C 30,6 C 21,1 C 50 % 0 lf 1022,7 hPa 0,0 l/m 2 min 0 min 637 W/m 14,6 km/h (3 Bft) 93,62 %
30.03.2017 14:32 22,7 C 30,6 C 21,1 C 51 % 0 lf 1022,6 hPa 0,0 l/m 2 min 0 min 663 W/m 18,8 km/h (3 Bft) 97,87 %
30.03.2017 14:34 22,7 C 30,0 C 21,1 C 50 % 0 lf 1022,6 hPa 0,0 l/m 2 min 0 min 714 W/m 14,6 km/h (3 Bft) 95,74 %
30.03.2017 14:36 22,7 C 28,3 C 21,1 C 51 % 0 lf 1022,6 hPa 0,0 l/m 2 min 0 min 611 W/m 20,9 km/h (4 Bft) 95,74 %
30.03.2017 14:38 22,7 C 26,1 C 21,1 C 51 % 0 lf 1022,6 hPa 0,0 l/m 0 min 0 min 202 W/m 20,9 km/h (4 Bft) 95,65 %
30.03.2017 14:40 22,7 C 26,7 C 21,1 C 52 % 0 lf 1022,5 hPa 0,0 l/m 0 min 0 min 229 W/m 16,7 km/h (3 Bft) 95,74 %
30.03.2017 14:42 22,7 C 28,9 C 21,7 C 52 % 0 lf 1022,5 hPa 0,0 l/m 2 min 0 min 699 W/m 20,9 km/h (4 Bft) 93,62 %
30.03.2017 14:44 22,7 C 29,4 C 21,7 C 52 % 0 lf 1022,5 hPa 0,0 l/m 2 min 0 min 697 W/m 16,7 km/h (3 Bft) 95,74 %
30.03.2017 14:46 22,8 C 29,4 C 22,2 C 51 % 0 lf 1022,5 hPa 0,0 l/m 2 min 0 min 695 W/m 23,0 km/h (4 Bft) 95,74 %
30.03.2017 14:48 22,9 C 30,6 C 22,2 C 51 % 0 lf 1022,4 hPa 0,0 l/m 2 min 0 min 723 W/m 20,9 km/h (4 Bft) 95,74 %
30.03.2017 14:50 22,9 C 28,9 C 21,7 C 50 % 0 lf 1022,4 hPa 0,0 l/m 2 min 0 min 540 W/m 27,2 km/h (4 Bft) 95,65 %
30.03.2017 14:52 22,8 C 28,3 C 21,7 C 51 % 0 lf 1022,4 hPa 0,0 l/m 0 min 0 min 219 W/m 25,1 km/h (4 Bft) 95,74 %
30.03.2017 14:54 22,8 C 27,8 C 21,7 C 51 % 0 lf 1022,4 hPa 0,0 l/m 0 min 0 min 220 W/m 16,7 km/h (3 Bft) 97,87 %
30.03.2017 14:56 22,8 C 27,8 C 21,7 C 52 % 0 lf 1022,4 hPa 0,0 l/m 0 min 0 min 220 W/m 18,8 km/h (3 Bft) 95,74 %
30.03.2017 14:58 22,8 C 26,7 C 21,1 C 51 % 0 lf 1022,4 hPa 0,0 l/m 0 min 0 min 215 W/m 16,7 km/h (3 Bft) 97,87 %
30.03.2017 15:00 22,7 C 26,1 C 21,1 C 51 % 0 lf 1022,4 hPa 0,0 l/m 0 min 0 min 181 W/m 18,8 km/h (3 Bft) 95,74 %
30.03.2017 15:02 22,6 C 25,0 C 21,1 C 51 % 0 lf 1022,3 hPa 0,0 l/m 0 min 0 min 185 W/m 14,6 km/h (3 Bft) 91,30 %
30.03.2017 15:04 22,6 C 26,7 C 21,7 C 51 % 0 lf 1022,4 hPa 0,0 l/m 0 min 0 min 186 W/m 16,7 km/h (3 Bft) 91,49 %
30.03.2017 15:06 22,6 C 28,3 C 22,8 C 52 % 0 lf 1022,2 hPa 0,0 l/m 2 min 0 min 521 W/m 10,5 km/h (2 Bft) 93,62 %
30.03.2017 15:08 22,6 C 27,2 C 23,3 C 51 % 0 lf 1022,2 hPa 0,0 l/m 2 min 0 min 666 W/m 10,5 km/h (2 Bft) 93,62 %
30.03.2017 15:10 22,6 C 26,7 C 22,2 C 52 % 0 lf 1022,2 hPa 0,0 l/m 2 min 0 min 399 W/m 14,6 km/h (3 Bft) 93,62 %
30.03.2017 15:12 22,6 C 28,3 C 23,3 C 51 % 0 lf 1022,2 hPa 0,0 l/m 0 min 0 min 193 W/m 12,6 km/h (3 Bft) 95,74 %
30.03.2017 15:14 22,6 C 30,0 C 24,4 C 51 % 0 lf 1022,1 hPa 0,0 l/m 2 min 0 min 619 W/m 12,6 km/h (3 Bft) 93,48 %
30.03.2017 15:16 22,6 C 30,6 C 25,6 C 53 % 0 lf 1022,1 hPa 0,0 l/m 2 min 0 min 707 W/m 25,1 km/h (4 Bft) 93,62 %
30.03.2017 15:18 22,7 C 31,1 C 25,0 C 53 % 0 lf 1022,1 hPa 0,0 l/m 2 min 0 min 721 W/m 20,9 km/h (4 Bft) 93,62 %
30.03.2017 15:20 22,8 C 30,6 C 26,1 C 52 % 0 lf 1022,0 hPa 0,0 l/m 2 min 0 min 721 W/m 14,6 km/h (3 Bft) 91,49 %
30.03.2017 15:22 22,9 C 29,4 C 25,6 C 51 % 0 lf 1021,9 hPa 0,0 l/m 2 min 0 min 634 W/m 16,7 km/h (3 Bft) 91,49 %
30.03.2017 15:24 22,9 C 25,6 C 23,9 C 51 % 0 lf 1022,0 hPa 0,0 l/m 0 min 0 min 191 W/m 20,9 km/h (4 Bft) 89,36 %
30.03.2017 15:26 22,9 C 23,3 C 22,8 C 51 % 0 lf 1021,9 hPa 0,0 l/m 0 min 0 min 194 W/m 20,9 km/h (4 Bft) 91,30 %
30.03.2017 15:28 22,8 C 24,4 C 23,3 C 51 % 0 lf 1021,9 hPa 0,0 l/m 0 min 0 min 211 W/m 16,7 km/h (3 Bft) 89,36 %
30.03.2017 15:30 22,8 C 25,6 C 23,3 C 51 % 0 lf 1021,9 hPa 0,0 l/m 0 min 0 min 211 W/m 12,6 km/h (3 Bft) 93,62 %
30.03.2017 15:32 22,7 C 23,9 C 22,8 C 52 % 0 lf 1021,9 hPa 0,0 l/m 0 min 0 min 217 W/m 20,9 km/h (4 Bft) 93,62 %
30.03.2017 15:34 22,7 C 24,4 C 22,8 C 51 % 0 lf 1021,8 hPa 0,0 l/m 0 min 0 min 211 W/m 16,7 km/h (3 Bft) 91,49 %
30.03.2017 15:36 22,6 C 25,0 C 22,8 C 52 % 0 lf 1021,9 hPa 0,0 l/m 0 min 0 min 211 W/m 10,5 km/h (2 Bft) 95,65 %
30.03.2017 15:38 22,6 C 24,4 C 22,8 C 51 % 0 lf 1021,8 hPa 0,0 l/m 0 min 0 min 229 W/m 14,6 km/h (3 Bft) 95,74 %
30.03.2017 15:40 22,5 C 23,9 C 22,2 C 52 % 0 lf 1021,8 hPa 0,0 l/m 0 min 0 min 229 W/m 18,8 km/h (3 Bft) 93,62 %
30.03.2017 15:42 22,4 C 25,0 C 22,8 C 53 % 0 lf 1021,8 hPa 0,0 l/m 2 min 0 min 371 W/m 16,7 km/h (3 Bft) 91,49 %
30.03.2017 15:44 22,4 C 25,6 C 23,3 C 53 % 0 lf 1021,8 hPa 0,0 l/m 2 min 0 min 604 W/m 18,8 km/h (3 Bft) 95,74 %
30.03.2017 15:46 22,4 C 25,6 C 22,8 C 54 % 0 lf 1021,8 hPa 0,0 l/m 2 min 0 min 556 W/m 10,5 km/h (2 Bft) 95,74 %
30.03.2017 15:48 22,3 C 26,1 C 22,8 C 54 % 0 lf 1021,8 hPa 0,0 l/m 0 min 0 min 216 W/m 10,5 km/h (2 Bft) 93,48 %
30.03.2017 15:50 22,4 C 28,9 C 22,8 C 55 % 0 lf 1021,7 hPa 0,0 l/m 2 min 0 min 604 W/m 10,5 km/h (2 Bft) 93,62 %
30.03.2017 15:52 22,4 C 31,1 C 22,8 C 55 % 0 lf 1021,7 hPa 0,0 l/m 2 min 0 min 651 W/m 12,6 km/h (3 Bft) 95,74 %
30.03.2017 15:54 22,6 C 31,7 C 23,3 C 55 % 0 lf 1021,7 hPa 0,0 l/m 2 min 0 min 657 W/m 10,5 km/h (2 Bft) 95,74 %
30.03.2017 15:56 22,7 C 31,7 C 23,3 C 55 % 0 lf 1021,7 hPa 0,0 l/m 2 min 0 min 603 W/m 6,3 km/h (2 Bft) 97,87 %
30.03.2017 15:58 22,8 C 31,7 C 22,8 C 53 % 0 lf 1021,5 hPa 0,0 l/m 2 min 0 min 563 W/m 12,6 km/h (3 Bft) 97,87 %
30.03.2017 16:00 22,8 C 29,4 C 22,8 C 52 % 0 lf 1021,5 hPa 0,0 l/m 2 min 0 min 600 W/m 16,7 km/h (3 Bft) 97,83 %
30.03.2017 16:02 22,9 C 30,0 C 22,8 C 52 % 0 lf 1021,5 hPa 0,0 l/m 2 min 0 min 601 W/m 14,6 km/h (3 Bft) 97,87 %
30.03.2017 16:04 22,9 C 30,0 C 22,8 C 52 % 0 lf 1021,4 hPa 0,0 l/m 2 min 0 min 560 W/m 18,8 km/h (3 Bft) 93,62 %
30.03.2017 16:06 23,1 C 30,0 C 22,8 C 52 % 0 lf 1021,5 hPa 0,0 l/m 2 min 0 min 577 W/m 14,6 km/h (3 Bft) 97,87 %
30.03.2017 16:08 23,1 C 29,4 C 22,2 C 51 % 0 lf 1021,5 hPa 0,0 l/m 2 min 0 min 562 W/m 20,9 km/h (4 Bft) 95,74 %
30.03.2017 16:10 23,1 C 27,2 C 22,2 C 51 % 0 lf 1021,4 hPa 0,0 l/m 2 min 0 min 341 W/m 16,7 km/h (3 Bft) 100,00 %
30.03.2017 16:12 23,1 C 25,6 C 21,7 C 51 % 0 lf 1021,5 hPa 0,0 l/m 0 min 0 min 222 W/m 16,7 km/h (3 Bft) 100,00 %
30.03.2017 16:14 23,1 C 27,8 C 22,2 C 52 % 0 lf 1021,4 hPa 0,0 l/m 2 min 0 min 408 W/m 12,6 km/h (3 Bft) 95,74 %
30.03.2017 16:16 23,1 C 27,2 C 22,2 C 51 % 0 lf 1021,4 hPa 0,0 l/m 2 min 0 min 528 W/m 12,6 km/h (3 Bft) 97,87 %
30.03.2017 16:18 23,1 C 28,3 C 22,8 C 51 % 0 lf 1021,4 hPa 0,0 l/m 2 min 0 min 522 W/m 10,5 km/h (2 Bft) 95,74 %
30.03.2017 16:20 23,1 C 29,4 C 23,3 C 52 % 0 lf 1021,5 hPa 0,0 l/m 2 min 0 min 610 W/m 10,5 km/h (2 Bft) 100,00 %
30.03.2017 16:22 23,1 C 28,9 C 23,3 C 51 % 0 lf 1021,5 hPa 0,0 l/m 2 min 0 min 568 W/m 14,6 km/h (3 Bft) 97,87 %
30.03.2017 16:24 23,2 C 29,4 C 23,3 C 51 % 0 lf 1021,5 hPa 0,0 l/m 2 min 0 min 523 W/m 18,8 km/h (3 Bft) 97,83 %
30.03.2017 16:26 23,2 C 28,3 C 23,3 C 50 % 0 lf 1021,5 hPa 0,0 l/m 2 min 0 min 555 W/m 25,1 km/h (4 Bft) 95,74 %
30.03.2017 16:28 23,2 C 28,3 C 23,3 C 50 % 0 lf 1021,5 hPa 0,0 l/m 2 min 0 min 561 W/m 14,6 km/h (3 Bft) 97,87 %
30.03.2017 16:30 23,2 C 28,9 C 23,3 C 50 % 0 lf 1021,4 hPa 0,0 l/m 2 min 0 min 568 W/m 18,8 km/h (3 Bft) 97,87 %
30.03.2017 16:32 23,2 C 27,8 C 22,8 C 50 % 0 lf 1021,4 hPa 0,0 l/m 2 min 0 min 504 W/m 16,7 km/h (3 Bft) 95,74 %
30.03.2017 16:34 23,2 C 27,8 C 22,8 C 50 % 0 lf 1021,4 hPa 0,0 l/m 2 min 0 min 480 W/m 18,8 km/h (3 Bft) 97,87 %
30.03.2017 16:36 23,2 C 29,4 C 22,8 C 51 % 0 lf 1021,3 hPa 0,0 l/m 2 min 0 min 518 W/m 14,6 km/h (3 Bft) 97,83 %
30.03.2017 16:38 23,3 C 28,3 C 22,2 C 50 % 0 lf 1021,3 hPa 0,0 l/m 2 min 0 min 489 W/m 8,4 km/h (2 Bft) 91,49 %
30.03.2017 16:40 23,3 C 28,9 C 22,2 C 50 % 0 lf 1021,3 hPa 0,0 l/m 2 min 0 min 483 W/m 12,6 km/h (3 Bft) 97,87 %
30.03.2017 16:42 23,3 C 30,0 C 22,2 C 50 % 0 lf 1021,2 hPa 0,0 l/m 2 min 0 min 525 W/m 8,4 km/h (2 Bft) 95,74 %
30.03.2017 16:44 23,3 C 27,8 C 22,2 C 50 % 0 lf 1021,2 hPa 0,0 l/m 2 min 0 min 504 W/m 12,6 km/h (3 Bft) 95,74 %
30.03.2017 16:46 23,3 C 28,9 C 22,2 C 51 % 0 lf 1021,1 hPa 0,0 l/m 2 min 0 min 503 W/m 12,6 km/h (3 Bft) 97,83 %
30.03.2017 16:48 23,3 C 28,9 C 22,8 C 51 % 0 lf 1021,2 hPa 0,0 l/m 2 min 0 min 520 W/m 18,8 km/h (3 Bft) 97,87 %
30.03.2017 16:50 23,3 C 28,3 C 22,8 C 51 % 0 lf 1021,2 hPa 0,0 l/m 2 min 0 min 508 W/m 12,6 km/h (3 Bft) 97,87 %
30.03.2017 16:52 23,3 C 29,4 C 22,2 C 51 % 0 lf 1021,1 hPa 0,0 l/m 2 min 0 min 474 W/m 18,8 km/h (3 Bft) 97,87 %
30.03.2017 16:54 23,4 C 28,3 C 22,2 C 50 % 0 lf 1021,1 hPa 0,0 l/m 2 min 0 min 461 W/m 10,5 km/h (2 Bft) 95,74 %
30.03.2017 16:56 23,4 C 28,3 C 21,7 C 50 % 0 lf 1021,1 hPa 0,0 l/m 2 min 0 min 458 W/m 18,8 km/h (3 Bft) 95,74 %
30.03.2017 16:58 23,4 C 28,3 C 21,7 C 50 % 0 lf 1021,1 hPa 0,0 l/m 2 min 0 min 414 W/m 10,5 km/h (2 Bft) 100,00 %
30.03.2017 17:00 23,4 C 26,7 C 21,7 C 49 % 0 lf 1021,1 hPa 0,0 l/m 2 min 0 min 436 W/m 14,6 km/h (3 Bft) 95,74 %
30.03.2017 17:02 23,3 C 27,2 C 21,7 C 50 % 0 lf 1021,0 hPa 0,0 l/m 2 min 0 min 450 W/m 14,6 km/h (3 Bft) 97,87 %
30.03.2017 17:04 23,3 C 27,8 C 21,7 C 50 % 0 lf 1021,0 hPa 0,0 l/m 2 min 0 min 416 W/m 12,6 km/h (3 Bft) 97,87 %
30.03.2017 17:06 23,3 C 28,9 C 21,7 C 50 % 0 lf 1021,0 hPa 0,0 l/m 2 min 0 min 466 W/m 10,5 km/h (2 Bft) 100,00 %
30.03.2017 17:08 23,3 C 27,2 C 21,7 C 50 % 0 lf 1020,9 hPa 0,0 l/m 2 min 0 min 405 W/m 14,6 km/h (3 Bft) 95,74 %
30.03.2017 17:10 23,3 C 26,1 C 21,7 C 49 % 0 lf 1020,9 hPa 0,0 l/m 2 min 0 min 385 W/m 18,8 km/h (3 Bft) 100,00 %
30.03.2017 17:12 23,3 C 26,1 C 21,7 C 49 % 0 lf 1020,8 hPa 0,0 l/m 2 min 0 min 408 W/m 18,8 km/h (3 Bft) 100,00 %
30.03.2017 17:14 23,3 C 26,1 C 21,7 C 50 % 0 lf 1020,8 hPa 0,0 l/m 2 min 0 min 403 W/m 14,6 km/h (3 Bft) 100,00 %
30.03.2017 17:16 23,2 C 26,7 C 21,7 C 50 % 0 lf 1020,8 hPa 0,0 l/m 2 min 0 min 397 W/m 18,8 km/h (3 Bft) 100,00 %
30.03.2017 17:18 23,2 C 26,7 C 21,7 C 50 % 0 lf 1020,8 hPa 0,0 l/m 2 min 0 min 372 W/m 16,7 km/h (3 Bft) 100,00 %
30.03.2017 17:20 23,2 C 27,2 C 21,7 C 50 % 0 lf 1020,7 hPa 0,0 l/m 2 min 0 min 371 W/m 16,7 km/h (3 Bft) 97,87 %
30.03.2017 17:22 23,2 C 27,8 C 21,1 C 50 % 0 lf 1020,7 hPa 0,0 l/m 2 min 0 min 354 W/m 12,6 km/h (3 Bft) 100,00 %
30.03.2017 17:24 23,2 C 27,2 C 21,1 C 50 % 0 lf 1020,6 hPa 0,0 l/m 2 min 0 min 347 W/m 14,6 km/h (3 Bft) 97,87 %
30.03.2017 17:26 23,2 C 26,7 C 21,7 C 50 % 0 lf 1020,6 hPa 0,0 l/m 2 min 0 min 365 W/m 14,6 km/h (3 Bft) 100,00 %
30.03.2017 17:28 23,2 C 26,7 C 21,7 C 50 % 0 lf 1020,7 hPa 0,0 l/m 2 min 0 min 337 W/m 16,7 km/h (3 Bft) 100,00 %
30.03.2017 17:30 23,2 C 25,6 C 21,7 C 50 % 0 lf 1020,6 hPa 0,0 l/m 2 min 0 min 338 W/m 16,7 km/h (3 Bft) 100,00 %
30.03.2017 17:32 23,2 C 26,7 C 21,7 C 50 % 0 lf 1020,6 hPa 0,0 l/m 2 min 0 min 335 W/m 12,6 km/h (3 Bft) 97,87 %
30.03.2017 17:34 23,2 C 26,7 C 21,7 C 50 % 0 lf 1020,6 hPa 0,0 l/m 2 min 0 min 343 W/m 16,7 km/h (3 Bft) 100,00 %
30.03.2017 17:36 23,1 C 25,6 C 21,1 C 49 % 0 lf 1020,6 hPa 0,0 l/m 2 min 0 min 327 W/m 20,9 km/h (4 Bft) 97,87 %
30.03.2017 17:38 23,1 C 25,6 C 21,1 C 49 % 0 lf 1020,6 hPa 0,0 l/m 2 min 0 min 303 W/m 14,6 km/h (3 Bft) 97,87 %
30.03.2017 17:40 23,1 C 25,6 C 21,1 C 49 % 0 lf 1020,6 hPa 0,0 l/m 2 min 0 min 315 W/m 18,8 km/h (3 Bft) 100,00 %
30.03.2017 17:42 23,1 C 25,6 C 21,1 C 50 % 0 lf 1020,5 hPa 0,0 l/m 2 min 0 min 322 W/m 16,7 km/h (3 Bft) 97,87 %
30.03.2017 17:44 23,1 C 25,6 C 21,1 C 49 % 0 lf 1020,5 hPa 0,0 l/m 2 min 0 min 351 W/m 14,6 km/h (3 Bft) 100,00 %
30.03.2017 17:46 23,0 C 25,6 C 21,1 C 49 % 0 lf 1020,5 hPa 0,0 l/m 2 min 0 min 358 W/m 12,6 km/h (3 Bft) 97,83 %
30.03.2017 17:48 23,0 C 26,1 C 21,1 C 50 % 0 lf 1020,4 hPa 0,0 l/m 2 min 0 min 331 W/m 16,7 km/h (3 Bft) 97,87 %
30.03.2017 17:50 22,9 C 25,6 C 21,1 C 50 % 0 lf 1020,5 hPa 0,0 l/m 2 min 0 min 337 W/m 14,6 km/h (3 Bft) 100,00 %
30.03.2017 17:52 22,9 C 25,6 C 21,1 C 50 % 0 lf 1020,4 hPa 0,0 l/m 2 min 0 min 331 W/m 14,6 km/h (3 Bft) 95,74 %
30.03.2017 17:54 22,9 C 26,1 C 21,1 C 50 % 0 lf 1020,4 hPa 0,0 l/m 2 min 0 min 302 W/m 6,3 km/h (2 Bft) 95,74 %
30.03.2017 17:56 22,9 C 26,1 C 21,1 C 50 % 0 lf 1020,4 hPa 0,0 l/m 2 min 0 min 271 W/m 8,4 km/h (2 Bft) 93,62 %
30.03.2017 17:58 22,9 C 25,0 C 21,1 C 49 % 0 lf 1020,4 hPa 0,0 l/m 2 min 0 min 221 W/m 10,5 km/h (2 Bft) 95,74 %
30.03.2017 18:00 22,9 C 26,1 C 20,6 C 49 % 0 lf 1020,3 hPa 0,0 l/m 2 min 0 min 238 W/m 16,7 km/h (3 Bft) 93,62 %
30.03.2017 18:02 22,9 C 25,6 C 20,6 C 50 % 0 lf 1020,3 hPa 0,0 l/m 2 min 0 min 225 W/m 12,6 km/h (3 Bft) 91,49 %
30.03.2017 18:04 22,9 C 26,7 C 20,6 C 51 % 0 lf 1020,3 hPa 0,0 l/m 2 min 0 min 276 W/m 10,5 km/h (2 Bft) 93,48 %
30.03.2017 18:06 22,9 C 26,7 C 20,0 C 51 % 0 lf 1020,3 hPa 0,0 l/m 2 min 0 min 189 W/m 6,3 km/h (2 Bft) 87,23 %
30.03.2017 18:10 22,9 C 25,6 C 20,6 C 49 % 0 lf 1020,3 hPa 0,0 l/m 2 min 0 min 239 W/m 10,5 km/h (2 Bft) 95,12 %
30.03.2017 18:12 22,9 C 25,0 C 20,6 C 49 % 0 lf 1020,3 hPa 0,0 l/m 2 min 0 min 201 W/m 14,6 km/h (3 Bft) 95,74 %
30.03.2017 18:14 22,9 C 24,4 C 20,6 C 50 % 0 lf 1020,2 hPa 0,0 l/m 2 min 0 min 185 W/m 14,6 km/h (3 Bft) 95,74 %
30.03.2017 18:16 22,9 C 23,9 C 20,0 C 50 % 0 lf 1020,3 hPa 0,0 l/m 2 min 0 min 164 W/m 14,6 km/h (3 Bft) 89,36 %
30.03.2017 18:18 22,8 C 23,9 C 20,0 C 50 % 0 lf 1020,2 hPa 0,0 l/m 2 min 0 min 170 W/m 10,5 km/h (2 Bft) 93,62 %
30.03.2017 18:20 22,8 C 23,9 C 20,0 C 50 % 0 lf 1020,2 hPa 0,0 l/m 2 min 0 min 177 W/m 12,6 km/h (3 Bft) 89,66 %
30.03.2017 18:22 22,8 C 24,4 C 20,0 C 51 % 0 lf 1020,2 hPa 0,0 l/m 2 min 0 min 182 W/m 12,6 km/h (3 Bft) 94,29 %
30.03.2017 18:24 22,8 C 23,9 C 20,0 C 50 % 0 lf 1020,2 hPa 0,0 l/m 2 min 0 min 176 W/m 12,6 km/h (3 Bft) 93,62 %
30.03.2017 18:26 22,7 C 23,3 C 20,0 C 50 % 0 lf 1020,3 hPa 0,0 l/m 2 min 0 min 160 W/m 12,6 km/h (3 Bft) 91,49 %
30.03.2017 18:28 22,7 C 23,3 C 19,4 C 50 % 0 lf 1020,2 hPa 0,0 l/m 2 min 0 min 144 W/m 16,7 km/h (3 Bft) 93,62 %
30.03.2017 18:30 22,7 C 22,8 C 19,4 C 50 % 0 lf 1020,2 hPa 0,0 l/m 2 min 0 min 141 W/m 18,8 km/h (3 Bft) 91,49 %
30.03.2017 18:32 22,6 C 22,8 C 19,4 C 50 % 0 lf 1020,2 hPa 0,0 l/m 2 min 0 min 132 W/m 18,8 km/h (3 Bft) 95,65 %
30.03.2017 18:34 22,6 C 22,2 C 19,4 C 50 % 0 lf 1020,1 hPa 0,0 l/m 2 min 0 min 132 W/m 14,6 km/h (3 Bft) 91,49 %
30.03.2017 18:36 22,4 C 22,2 C 19,4 C 51 % 0 lf 1020,1 hPa 0,0 l/m 2 min 0 min 127 W/m 14,6 km/h (3 Bft) 91,49 %
30.03.2017 18:38 22,4 C 22,2 C 19,4 C 51 % 0 lf 1020,2 hPa 0,0 l/m 2 min 0 min 111 W/m 16,7 km/h (3 Bft) 91,49 %
30.03.2017 18:40 22,3 C 22,2 C 18,9 C 51 % 0 lf 1020,2 hPa 0,0 l/m 0 min 0 min 96 W/m 10,5 km/h (2 Bft) 91,49 %
30.03.2017 18:42 22,3 C 22,2 C 18,9 C 51 % 0 lf 1020,1 hPa 0,0 l/m 0 min 0 min 98 W/m 14,6 km/h (3 Bft) 91,30 %
30.03.2017 18:44 22,2 C 22,2 C 18,9 C 51 % 0 lf 1020,1 hPa 0,0 l/m 0 min 0 min 94 W/m 10,5 km/h (2 Bft) 93,62 %
30.03.2017 18:46 22,2 C 21,7 C 18,9 C 52 % 0 lf 1020,1 hPa 0,0 l/m 0 min 0 min 85 W/m 12,6 km/h (3 Bft) 91,49 %
30.03.2017 18:48 22,1 C 21,7 C 18,9 C 52 % 0 lf 1020,1 hPa 0,0 l/m 0 min 0 min 78 W/m 14,6 km/h (3 Bft) 95,74 %
30.03.2017 18:50 22,1 C 21,7 C 18,9 C 52 % 0 lf 1020,1 hPa 0,0 l/m 0 min 0 min 74 W/m 14,6 km/h (3 Bft) 93,22 %
30.03.2017 18:52 22,0 C 21,7 C 18,9 C 52 % 0 lf 1020,1 hPa 0,0 l/m 0 min 0 min 70 W/m 12,6 km/h (3 Bft) 97,14 %
30.03.2017 18:54 21,9 C 21,7 C 18,3 C 52 % 0 lf 1020,1 hPa 0,0 l/m 0 min 0 min 71 W/m 10,5 km/h (2 Bft) 95,65 %
30.03.2017 18:56 21,9 C 21,1 C 18,3 C 52 % 0 lf 1020,1 hPa 0,0 l/m 0 min 0 min 71 W/m 12,6 km/h (3 Bft) 93,62 %
30.03.2017 18:58 21,8 C 21,1 C 18,3 C 52 % 0 lf 1020,1 hPa 0,0 l/m 0 min 0 min 67 W/m 8,4 km/h (2 Bft) 95,74 %
30.03.2017 19:00 21,8 C 21,1 C 17,8 C 52 % 0 lf 1020,1 hPa 0,0 l/m 0 min 0 min 64 W/m 10,5 km/h (2 Bft) 95,74 %
30.03.2017 19:02 21,7 C 21,1 C 17,8 C 52 % 0 lf 1020,0 hPa 0,0 l/m 0 min 0 min 62 W/m 10,5 km/h (2 Bft) 95,74 %
30.03.2017 19:04 21,7 C 21,1 C 17,8 C 52 % 0 lf 1020,0 hPa 0,0 l/m 0 min 0 min 61 W/m 6,3 km/h (2 Bft) 93,62 %
30.03.2017 19:06 21,6 C 21,1 C 17,8 C 52 % 0 lf 1020,0 hPa 0,0 l/m 0 min 0 min 60 W/m 6,3 km/h (2 Bft) 95,74 %
30.03.2017 19:08 21,6 C 21,1 C 17,2 C 53 % 0 lf 1020,0 hPa 0,0 l/m 0 min 0 min 57 W/m 10,5 km/h (2 Bft) 97,83 %
30.03.2017 19:10 21,6 C 21,1 C 17,2 C 53 % 0 lf 1020,0 hPa 0,0 l/m 0 min 0 min 55 W/m 6,3 km/h (2 Bft) 97,87 %
30.03.2017 19:12 21,5 C 21,1 C 16,7 C 53 % 0 lf 1020,0 hPa 0,0 l/m 0 min 0 min 53 W/m 4,2 km/h (1 Bft) 97,87 %
30.03.2017 19:14 21,4 C 21,1 C 16,7 C 53 % 0 lf 1020,0 hPa 0,0 l/m 0 min 0 min 51 W/m 6,3 km/h (2 Bft) 95,74 %
30.03.2017 19:16 21,4 C 21,1 C 16,7 C 53 % 0 lf 1020,0 hPa 0,0 l/m 0 min 0 min 49 W/m 6,3 km/h (2 Bft) 97,87 %
30.03.2017 19:18 21,4 C 21,1 C 16,7 C 53 % 0 lf 1020,0 hPa 0,0 l/m 0 min 0 min 47 W/m 8,4 km/h (2 Bft) 100,00 %
30.03.2017 19:20 21,3 C 20,6 C 16,7 C 53 % 0 lf 1020,0 hPa 0,0 l/m 0 min 0 min 45 W/m 6,3 km/h (2 Bft) 100,00 %
30.03.2017 19:22 21,3 C 20,6 C 16,7 C 53 % 0 lf 1020,0 hPa 0,0 l/m 0 min 0 min 44 W/m 4,2 km/h (1 Bft) 97,14 %
30.03.2017 19:24 21,3 C 20,6 C 16,7 C 54 % 0 lf 1020,0 hPa 0,0 l/m 0 min 0 min 41 W/m 4,2 km/h (1 Bft) 100,00 %
30.03.2017 19:26 21,2 C 20,6 C 16,1 C 53 % 0 lf 1020,0 hPa 0,0 l/m 0 min 0 min 40 W/m 6,3 km/h (2 Bft) 93,62 %
30.03.2017 19:28 21,2 C 20,6 C 16,1 C 54 % 0 lf 1020,0 hPa 0,0 l/m 0 min 0 min 38 W/m 6,3 km/h (2 Bft) 100,00 %
30.03.2017 19:30 21,2 C 20,6 C 15,6 C 54 % 0 lf 1020,0 hPa 0,0 l/m 0 min 0 min 36 W/m 4,2 km/h (1 Bft) 100,00 %
30.03.2017 19:32 21,1 C 20,0 C 15,6 C 54 % 0 lf 1020,0 hPa 0,0 l/m 0 min 0 min 33 W/m 6,3 km/h (2 Bft) 100,00 %
30.03.2017 19:34 21,1 C 20,0 C 15,0 C 54 % 0 lf 1020,0 hPa 0,0 l/m 0 min 0 min 32 W/m 4,2 km/h (1 Bft) 100,00 %
30.03.2017 19:36 21,0 C 20,0 C 15,0 C 54 % 0 lf 1020,0 hPa 0,0 l/m 0 min 0 min 29 W/m 6,3 km/h (2 Bft) 100,00 %
30.03.2017 19:38 21,0 C 20,0 C 15,0 C 54 % 0 lf 1020,0 hPa 0,0 l/m 0 min 0 min 27 W/m 6,3 km/h (2 Bft) 100,00 %
30.03.2017 19:40 20,9 C 20,0 C 15,0 C 54 % 0 lf 1020,0 hPa 0,0 l/m 2 min 0 min 26 W/m 6,3 km/h (2 Bft) 97,87 %
30.03.2017 19:42 20,9 C 19,4 C 14,4 C 55 % 0 lf 1020,0 hPa 0,0 l/m 2 min 0 min 24 W/m 6,3 km/h (2 Bft) 97,83 %
30.03.2017 19:44 20,9 C 19,4 C 14,4 C 55 % 0 lf 1020,0 hPa 0,0 l/m 2 min 0 min 23 W/m 6,3 km/h (2 Bft) 100,00 %
30.03.2017 19:46 20,8 C 19,4 C 13,9 C 55 % 0 lf 1020,0 hPa 0,0 l/m 2 min 0 min 21 W/m 6,3 km/h (2 Bft) 95,74 %
30.03.2017 19:48 20,8 C 19,4 C 13,9 C 55 % 0 lf 1020,0 hPa 0,0 l/m 0 min 0 min 19 W/m 4,2 km/h (1 Bft) 95,74 %
30.03.2017 19:50 20,7 C 19,4 C 13,9 C 55 % 0 lf 1019,9 hPa 0,0 l/m 0 min 0 min 17 W/m 6,3 km/h (2 Bft) 100,00 %
30.03.2017 19:52 20,7 C 18,9 C 13,9 C 55 % 0 lf 1019,9 hPa 0,0 l/m 0 min 0 min 15 W/m 8,4 km/h (2 Bft) 100,00 %
30.03.2017 19:54 20,6 C 18,9 C 13,9 C 55 % 0 lf 1019,9 hPa 0,0 l/m 0 min 0 min 13 W/m 6,3 km/h (2 Bft) 97,83 %
30.03.2017 19:56 20,6 C 18,9 C 13,9 C 55 % 0 lf 1019,9 hPa 0,0 l/m 0 min 0 min 12 W/m 8,4 km/h (2 Bft) 95,74 %
30.03.2017 19:58 20,5 C 18,9 C 13,3 C 55 % 0 lf 1019,9 hPa 0,0 l/m 0 min 0 min 11 W/m 6,3 km/h (2 Bft) 100,00 %
30.03.2017 20:00 20,4 C 18,9 C 13,3 C 56 % 0 lf 1019,9 hPa 0,0 l/m 0 min 0 min 9 W/m 6,3 km/h (2 Bft) 100,00 %
30.03.2017 20:02 20,3 C 18,9 C 13,3 C 56 % 0 lf 1019,8 hPa 0,0 l/m 0 min 0 min 8 W/m 6,3 km/h (2 Bft) 100,00 %
30.03.2017 20:04 20,3 C 18,9 C 13,3 C 56 % 0 lf 1019,8 hPa 0,0 l/m 0 min 0 min 7 W/m 6,3 km/h (2 Bft) 100,00 %
30.03.2017 20:06 20,2 C 18,9 C 13,3 C 56 % 0 lf 1019,8 hPa 0,0 l/m 0 min 0 min 6 W/m 6,3 km/h (2 Bft) 100,00 %
30.03.2017 20:08 20,2 C 18,9 C 12,8 C 57 % 0 lf 1019,8 hPa 0,0 l/m 0 min 0 min 5 W/m 6,3 km/h (2 Bft) 97,87 %
30.03.2017 20:10 20,1 C 18,3 C 12,8 C 57 % 0 lf 1019,8 hPa 0,0 l/m 0 min 0 min 5 W/m 8,4 km/h (2 Bft) 100,00 %
30.03.2017 20:12 20,1 C 18,3 C 12,8 C 57 % 0 lf 1019,8 hPa 0,0 l/m 0 min 0 min 5 W/m 6,3 km/h (2 Bft) 100,00 %
30.03.2017 20:14 19,9 C 18,3 C 12,8 C 57 % 0 lf 1019,8 hPa 0,0 l/m 0 min 0 min 5 W/m 6,3 km/h (2 Bft) 100,00 %
30.03.2017 20:16 19,9 C 18,3 C 12,8 C 57 % 0 lf 1019,8 hPa 0,0 l/m 0 min 0 min 0 W/m 6,3 km/h (2 Bft) 97,87 %
30.03.2017 20:18 19,8 C 18,3 C 12,8 C 57 % 0 lf 1019,8 hPa 0,0 l/m 0 min 0 min 0 W/m 6,3 km/h (2 Bft) 95,65 %
30.03.2017 20:20 19,8 C 17,8 C 12,8 C 57 % 0 lf 1019,8 hPa 0,0 l/m 0 min 0 min 0 W/m 6,3 km/h (2 Bft) 97,87 %
30.03.2017 20:22 19,7 C 17,8 C 12,2 C 58 % 0 lf 1019,8 hPa 0,0 l/m 0 min 0 min 0 W/m 4,2 km/h (1 Bft) 100,00 %
30.03.2017 20:24 19,6 C 17,8 C 12,2 C 58 % 0 lf 1019,8 hPa 0,0 l/m 0 min 0 min 0 W/m 6,3 km/h (2 Bft) 97,87 %
30.03.2017 20:26 19,6 C 17,8 C 12,2 C 58 % 0 lf 1019,8 hPa 0,0 l/m 0 min 0 min 0 W/m 4,2 km/h (1 Bft) 97,87 %
30.03.2017 20:28 19,4 C 17,8 C 12,2 C 58 % 0 lf 1019,8 hPa 0,0 l/m 0 min 0 min 0 W/m 4,2 km/h (1 Bft) 100,00 %
30.03.2017 20:30 19,4 C 17,8 C 12,2 C 59 % 0 lf 1019,8 hPa 0,0 l/m 0 min 0 min 0 W/m 6,3 km/h (2 Bft) 100,00 %
30.03.2017 20:32 19,3 C 17,8 C 12,2 C 59 % 0 lf 1019,8 hPa 0,0 l/m 0 min 0 min 0 W/m 6,3 km/h (2 Bft) 100,00 %
30.03.2017 20:34 19,2 C 17,8 C 12,2 C 59 % 0 lf 1019,8 hPa 0,0 l/m 0 min 0 min 0 W/m 6,3 km/h (2 Bft) 95,74 %
30.03.2017 20:36 19,2 C 17,2 C 12,2 C 59 % 0 lf 1019,8 hPa 0,0 l/m 0 min 0 min 0 W/m 6,3 km/h (2 Bft) 91,49 %
30.03.2017 20:38 19,1 C 17,2 C 11,7 C 59 % 0 lf 1019,8 hPa 0,0 l/m 0 min 0 min 0 W/m 6,3 km/h (2 Bft) 95,74 %
30.03.2017 20:40 19,0 C 17,2 C 11,7 C 60 % 0 lf 1019,8 hPa 0,0 l/m 0 min 0 min 0 W/m 6,3 km/h (2 Bft) 95,74 %
30.03.2017 20:42 18,9 C 17,2 C 11,7 C 60 % 0 lf 1019,7 hPa 0,0 l/m 0 min 0 min 0 W/m 8,4 km/h (2 Bft) 93,48 %
30.03.2017 20:44 18,8 C 17,2 C 11,7 C 60 % 0 lf 1019,8 hPa 0,0 l/m 0 min 0 min 0 W/m 8,4 km/h (2 Bft) 95,74 %
30.03.2017 20:46 18,8 C 17,2 C 11,7 C 60 % 0 lf 1019,7 hPa 0,0 l/m 0 min 0 min 0 W/m 6,3 km/h (2 Bft) 95,74 %
30.03.2017 20:48 18,7 C 17,2 C 11,7 C 61 % 0 lf 1019,7 hPa 0,0 l/m 0 min 0 min 0 W/m 6,3 km/h (2 Bft) 93,62 %
30.03.2017 20:50 18,6 C 17,2 C 11,7 C 61 % 0 lf 1019,8 hPa 0,0 l/m 0 min 0 min 0 W/m 4,2 km/h (1 Bft) 95,74 %
30.03.2017 20:52 18,6 C 17,2 C 11,7 C 61 % 0 lf 1019,8 hPa 0,0 l/m 0 min 0 min 0 W/m 6,3 km/h (2 Bft) 95,65 %
30.03.2017 20:54 18,5 C 17,2 C 11,7 C 61 % 0 lf 1019,8 hPa 0,0 l/m 0 min 0 min 0 W/m 6,3 km/h (2 Bft) 95,74 %
30.03.2017 20:56 18,4 C 17,2 C 11,7 C 62 % 0 lf 1019,8 hPa 0,0 l/m 0 min 0 min 0 W/m 6,3 km/h (2 Bft) 95,74 %
30.03.2017 20:58 18,3 C 17,2 C 11,7 C 62 % 0 lf 1019,8 hPa 0,0 l/m 0 min 0 min 0 W/m 6,3 km/h (2 Bft) 93,62 %
30.03.2017 21:00 18,3 C 17,2 C 11,7 C 62 % 0 lf 1019,8 hPa 0,0 l/m 0 min 0 min 0 W/m 8,4 km/h (2 Bft) 95,74 %
30.03.2017 21:02 18,2 C 16,7 C 11,7 C 62 % 0 lf 1019,9 hPa 0,0 l/m 0 min 0 min 0 W/m 6,3 km/h (2 Bft) 95,74 %
30.03.2017 21:04 18,2 C 16,7 C 11,7 C 62 % 0 lf 1019,8 hPa 0,0 l/m 0 min 0 min 0 W/m 6,3 km/h (2 Bft) 91,30 %
30.03.2017 21:06 18,1 C 16,7 C 11,7 C 62 % 0 lf 1019,8 hPa 0,0 l/m 0 min 0 min 0 W/m 6,3 km/h (2 Bft) 95,74 %
30.03.2017 21:08 18,1 C 16,7 C 11,7 C 63 % 0 lf 1019,8 hPa 0,0 l/m 0 min 0 min 0 W/m 6,3 km/h (2 Bft) 95,74 %
30.03.2017 21:10 17,9 C 16,7 C 12,2 C 63 % 0 lf 1019,8 hPa 0,0 l/m 0 min 0 min 0 W/m 8,4 km/h (2 Bft) 93,62 %
30.03.2017 21:12 17,9 C 17,2 C 12,2 C 63 % 0 lf 1019,8 hPa 0,0 l/m 0 min 0 min 0 W/m 6,3 km/h (2 Bft) 93,62 %
30.03.2017 21:14 17,8 C 16,7 C 12,2 C 63 % 0 lf 1019,8 hPa 0,0 l/m 0 min 0 min 0 W/m 10,5 km/h (2 Bft) 97,87 %
30.03.2017 21:16 17,8 C 16,7 C 12,2 C 63 % 0 lf 1019,8 hPa 0,0 l/m 0 min 0 min 0 W/m 8,4 km/h (2 Bft) 91,30 %
30.03.2017 21:18 17,7 C 16,7 C 12,2 C 64 % 0 lf 1019,8 hPa 0,0 l/m 0 min 0 min 0 W/m 8,4 km/h (2 Bft) 95,74 %
30.03.2017 21:20 17,7 C 16,7 C 12,2 C 64 % 0 lf 1019,8 hPa 0,0 l/m 0 min 0 min 0 W/m 8,4 km/h (2 Bft) 93,62 %
30.03.2017 21:22 17,6 C 16,7 C 12,2 C 64 % 0 lf 1019,8 hPa 0,0 l/m 0 min 0 min 0 W/m 10,5 km/h (2 Bft) 95,74 %
30.03.2017 21:24 17,6 C 16,7 C 12,2 C 64 % 0 lf 1019,8 hPa 0,0 l/m 0 min 0 min 0 W/m 6,3 km/h (2 Bft) 95,74 %
30.03.2017 21:26 17,5 C 16,7 C 12,2 C 64 % 0 lf 1019,8 hPa 0,0 l/m 0 min 0 min 0 W/m 8,4 km/h (2 Bft) 93,62 %
30.03.2017 21:28 17,4 C 16,7 C 12,8 C 64 % 0 lf 1019,8 hPa 0,0 l/m 0 min 0 min 0 W/m 6,3 km/h (2 Bft) 95,65 %
30.03.2017 21:30 17,4 C 16,7 C 12,8 C 64 % 0 lf 1019,8 hPa 0,0 l/m 0 min 0 min 0 W/m 10,5 km/h (2 Bft) 97,87 %
30.03.2017 21:32 17,4 C 16,7 C 12,8 C 65 % 0 lf 1019,8 hPa 0,0 l/m 0 min 0 min 0 W/m 8,4 km/h (2 Bft) 97,87 %
30.03.2017 21:34 17,3 C 16,7 C 12,8 C 64 % 0 lf 1019,8 hPa 0,0 l/m 0 min 0 min 0 W/m 8,4 km/h (2 Bft) 95,74 %
30.03.2017 21:36 17,3 C 16,7 C 12,8 C 64 % 0 lf 1019,8 hPa 0,0 l/m 0 min 0 min 0 W/m 8,4 km/h (2 Bft) 93,62 %
30.03.2017 21:38 17,2 C 16,7 C 12,8 C 65 % 0 lf 1019,8 hPa 0,0 l/m 0 min 0 min 0 W/m 8,4 km/h (2 Bft) 93,48 %
30.03.2017 21:40 17,2 C 16,7 C 12,8 C 65 % 0 lf 1019,8 hPa 0,0 l/m 0 min 0 min 0 W/m 8,4 km/h (2 Bft) 93,62 %
30.03.2017 21:42 17,2 C 16,7 C 12,2 C 65 % 0 lf 1019,8 hPa 0,0 l/m 0 min 0 min 0 W/m 8,4 km/h (2 Bft) 91,49 %
30.03.2017 21:44 17,1 C 16,7 C 12,8 C 65 % 0 lf 1019,8 hPa 0,0 l/m 0 min 0 min 0 W/m 12,6 km/h (3 Bft) 89,36 %
30.03.2017 21:46 17,1 C 16,7 C 12,8 C 65 % 0 lf 1019,8 hPa 0,0 l/m 0 min 0 min 0 W/m 6,3 km/h (2 Bft) 95,74 %
30.03.2017 21:48 17,1 C 16,7 C 12,8 C 65 % 0 lf 1019,8 hPa 0,0 l/m 0 min 0 min 0 W/m 10,5 km/h (2 Bft) 95,74 %
30.03.2017 21:50 17,0 C 16,7 C 12,8 C 65 % 0 lf 1019,8 hPa 0,0 l/m 0 min 0 min 0 W/m 10,5 km/h (2 Bft) 96,55 %
30.03.2017 21:52 17,0 C 16,7 C 13,3 C 65 % 0 lf 1019,8 hPa 0,0 l/m 0 min 0 min 0 W/m 12,6 km/h (3 Bft) 91,43 %
30.03.2017 21:54 16,9 C 16,7 C 13,3 C 65 % 0 lf 1019,7 hPa 0,0 l/m 0 min 0 min 0 W/m 10,5 km/h (2 Bft) 95,74 %
30.03.2017 21:56 16,9 C 16,7 C 12,8 C 65 % 0 lf 1019,7 hPa 0,0 l/m 0 min 0 min 0 W/m 8,4 km/h (2 Bft) 93,62 %
30.03.2017 21:58 16,9 C 16,7 C 12,8 C 65 % 0 lf 1019,7 hPa 0,0 l/m 0 min 0 min 0 W/m 8,4 km/h (2 Bft) 95,74 %
30.03.2017 22:00 16,9 C 16,7 C 12,8 C 65 % 0 lf 1019,7 hPa 0,0 l/m 0 min 0 min 0 W/m 10,5 km/h (2 Bft) 93,62 %
30.03.2017 22:02 16,9 C 16,7 C 12,8 C 66 % 0 lf 1019,7 hPa 0,0 l/m 0 min 0 min 0 W/m 10,5 km/h (2 Bft) 89,13 %
30.03.2017 22:04 16,8 C 16,7 C 13,3 C 66 % 0 lf 1019,7 hPa 0,0 l/m 0 min 0 min 0 W/m 10,5 km/h (2 Bft) 91,49 %
30.03.2017 22:06 16,8 C 16,7 C 12,8 C 65 % 0 lf 1019,7 hPa 0,0 l/m 0 min 0 min 0 W/m 10,5 km/h (2 Bft) 93,62 %
30.03.2017 22:08 16,8 C 16,1 C 12,8 C 65 % 0 lf 1019,7 hPa 0,0 l/m 0 min 0 min 0 W/m 8,4 km/h (2 Bft) 97,87 %
30.03.2017 22:10 16,8 C 16,1 C 12,8 C 66 % 0 lf 1019,7 hPa 0,0 l/m 0 min 0 min 0 W/m 8,4 km/h (2 Bft) 97,87 %
30.03.2017 22:12 16,7 C 16,1 C 12,8 C 66 % 0 lf 1019,7 hPa 0,0 l/m 0 min 0 min 0 W/m 10,5 km/h (2 Bft) 97,87 %
30.03.2017 22:14 16,7 C 16,1 C 12,8 C 66 % 0 lf 1019,6 hPa 0,0 l/m 0 min 0 min 0 W/m 10,5 km/h (2 Bft) 97,83 %
30.03.2017 22:16 16,7 C 16,1 C 12,8 C 66 % 0 lf 1019,7 hPa 0,0 l/m 0 min 0 min 0 W/m 8,4 km/h (2 Bft) 100,00 %
30.03.2017 22:18 16,7 C 16,1 C 12,8 C 66 % 0 lf 1019,7 hPa 0,0 l/m 0 min 0 min 0 W/m 8,4 km/h (2 Bft) 100,00 %
30.03.2017 22:20 16,6 C 16,1 C 12,8 C 66 % 0 lf 1019,7 hPa 0,0 l/m 0 min 0 min 0 W/m 10,5 km/h (2 Bft) 98,31 %
30.03.2017 22:22 16,6 C 16,1 C 12,8 C 66 % 0 lf 1019,6 hPa 0,0 l/m 0 min 0 min 0 W/m 12,6 km/h (3 Bft) 94,29 %
30.03.2017 22:24 16,6 C 16,1 C 12,8 C 66 % 0 lf 1019,6 hPa 0,0 l/m 0 min 0 min 0 W/m 8,4 km/h (2 Bft) 100,00 %
30.03.2017 22:26 16,6 C 16,1 C 12,8 C 66 % 0 lf 1019,6 hPa 0,0 l/m 0 min 0 min 0 W/m 8,4 km/h (2 Bft) 100,00 %
30.03.2017 22:28 16,5 C 16,1 C 12,8 C 67 % 0 lf 1019,6 hPa 0,0 l/m 0 min 0 min 0 W/m 6,3 km/h (2 Bft) 97,87 %
30.03.2017 22:30 16,4 C 16,1 C 12,2 C 67 % 0 lf 1019,5 hPa 0,0 l/m 0 min 0 min 0 W/m 6,3 km/h (2 Bft) 97,87 %
30.03.2017 22:32 16,4 C 16,1 C 12,2 C 67 % 0 lf 1019,5 hPa 0,0 l/m 0 min 0 min 0 W/m 8,4 km/h (2 Bft) 95,74 %
30.03.2017 22:34 16,4 C 15,6 C 12,2 C 67 % 0 lf 1019,5 hPa 0,0 l/m 0 min 0 min 0 W/m 6,3 km/h (2 Bft) 100,00 %
30.03.2017 22:36 16,4 C 15,6 C 12,2 C 67 % 0 lf 1019,5 hPa 0,0 l/m 0 min 0 min 0 W/m 8,4 km/h (2 Bft) 100,00 %
30.03.2017 22:38 16,3 C 15,6 C 12,2 C 67 % 0 lf 1019,4 hPa 0,0 l/m 0 min 0 min 0 W/m 6,3 km/h (2 Bft) 95,65 %
30.03.2017 22:40 16,3 C 15,6 C 11,7 C 67 % 0 lf 1019,4 hPa 0,0 l/m 0 min 0 min 0 W/m 6,3 km/h (2 Bft) 97,87 %
30.03.2017 22:42 16,3 C 15,0 C 11,7 C 67 % 0 lf 1019,4 hPa 0,0 l/m 0 min 0 min 0 W/m 6,3 km/h (2 Bft) 95,74 %
30.03.2017 22:44 16,2 C 15,0 C 11,7 C 67 % 0 lf 1019,4 hPa 0,0 l/m 0 min 0 min 0 W/m 6,3 km/h (2 Bft) 95,74 %
30.03.2017 22:46 16,2 C 15,0 C 11,7 C 67 % 0 lf 1019,3 hPa 0,0 l/m 0 min 0 min 0 W/m 6,3 km/h (2 Bft) 97,87 %
30.03.2017 22:48 16,2 C 15,0 C 11,1 C 67 % 0 lf 1019,4 hPa 0,0 l/m 0 min 0 min 0 W/m 8,4 km/h (2 Bft) 97,87 %
30.03.2017 22:50 16,1 C 15,6 C 11,1 C 67 % 0 lf 1019,4 hPa 0,0 l/m 0 min 0 min 0 W/m 8,4 km/h (2 Bft) 96,55 %
30.03.2017 22:52 16,1 C 15,0 C 11,1 C 68 % 0 lf 1019,5 hPa 0,0 l/m 0 min 0 min 0 W/m 6,3 km/h (2 Bft) 97,14 %
30.03.2017 22:54 16,1 C 15,6 C 11,7 C 68 % 0 lf 1019,4 hPa 0,0 l/m 0 min 0 min 0 W/m 10,5 km/h (2 Bft) 97,87 %
30.03.2017 22:56 16,0 C 15,6 C 11,7 C 68 % 0 lf 1019,4 hPa 0,0 l/m 0 min 0 min 0 W/m 8,4 km/h (2 Bft) 97,87 %
30.03.2017 22:58 15,9 C 15,6 C 11,7 C 68 % 0 lf 1019,4 hPa 0,0 l/m 0 min 0 min 0 W/m 8,4 km/h (2 Bft) 95,74 %
30.03.2017 23:00 15,9 C 15,6 C 11,7 C 68 % 0 lf 1019,3 hPa 0,0 l/m 0 min 0 min 0 W/m 8,4 km/h (2 Bft) 95,74 %
30.03.2017 23:02 15,8 C 15,0 C 11,7 C 68 % 0 lf 1019,3 hPa 0,0 l/m 0 min 0 min 0 W/m 10,5 km/h (2 Bft) 97,83 %
30.03.2017 23:04 15,8 C 15,0 C 11,7 C 68 % 0 lf 1019,3 hPa 0,0 l/m 0 min 0 min 0 W/m 8,4 km/h (2 Bft) 97,87 %
30.03.2017 23:06 15,8 C 15,0 C 11,7 C 68 % 0 lf 1019,3 hPa 0,0 l/m 0 min 0 min 0 W/m 8,4 km/h (2 Bft) 97,87 %
30.03.2017 23:08 15,7 C 15,0 C 11,1 C 68 % 0 lf 1019,3 hPa 0,0 l/m 0 min 0 min 0 W/m 8,4 km/h (2 Bft) 97,87 %
30.03.2017 23:10 15,7 C 15,0 C 11,1 C 69 % 0 lf 1019,3 hPa 0,0 l/m 0 min 0 min 0 W/m 6,3 km/h (2 Bft) 100,00 %
30.03.2017 23:12 15,7 C 15,0 C 11,1 C 69 % 0 lf 1019,3 hPa 0,0 l/m 0 min 0 min 0 W/m 8,4 km/h (2 Bft) 97,83 %
30.03.2017 23:14 15,6 C 15,0 C 11,1 C 69 % 0 lf 1019,3 hPa 0,0 l/m 0 min 0 min 0 W/m 6,3 km/h (2 Bft) 100,00 %
30.03.2017 23:16 15,6 C 15,0 C 11,1 C 69 % 0 lf 1019,2 hPa 0,0 l/m 0 min 0 min 0 W/m 8,4 km/h (2 Bft) 97,87 %
30.03.2017 23:18 15,6 C 15,0 C 11,1 C 69 % 0 lf 1019,2 hPa 0,0 l/m 0 min 0 min 0 W/m 6,3 km/h (2 Bft) 100,00 %
30.03.2017 23:20 15,5 C 14,4 C 10,6 C 69 % 0 lf 1019,2 hPa 0,0 l/m 0 min 0 min 0 W/m 6,3 km/h (2 Bft) 100,00 %
30.03.2017 23:22 15,4 C 14,4 C 10,6 C 69 % 0 lf 1019,2 hPa 0,0 l/m 0 min 0 min 0 W/m 8,4 km/h (2 Bft) 97,22 %
30.03.2017 23:24 15,4 C 14,4 C 10,6 C 69 % 0 lf 1019,1 hPa 0,0 l/m 0 min 0 min 0 W/m 8,4 km/h (2 Bft) 97,83 %
30.03.2017 23:26 15,4 C 14,4 C 10,6 C 69 % 0 lf 1019,1 hPa 0,0 l/m 0 min 0 min 0 W/m 6,3 km/h (2 Bft) 97,87 %
30.03.2017 23:28 15,4 C 14,4 C 10,6 C 69 % 0 lf 1019,2 hPa 0,0 l/m 0 min 0 min 0 W/m 10,5 km/h (2 Bft) 97,87 %
30.03.2017 23:30 15,3 C 14,4 C 10,6 C 70 % 0 lf 1019,1 hPa 0,0 l/m 0 min 0 min 0 W/m 6,3 km/h (2 Bft) 97,87 %
30.03.2017 23:32 15,3 C 15,0 C 11,1 C 70 % 0 lf 1019,1 hPa 0,0 l/m 0 min 0 min 0 W/m 8,4 km/h (2 Bft) 95,74 %
30.03.2017 23:34 15,2 C 15,0 C 11,1 C 70 % 0 lf 1019,1 hPa 0,0 l/m 0 min 0 min 0 W/m 10,5 km/h (2 Bft) 97,87 %
30.03.2017 23:36 15,2 C 15,0 C 11,1 C 70 % 0 lf 1019,1 hPa 0,0 l/m 0 min 0 min 0 W/m 8,4 km/h (2 Bft) 95,65 %
30.03.2017 23:38 15,2 C 15,0 C 11,1 C 70 % 0 lf 1019,1 hPa 0,0 l/m 0 min 0 min 0 W/m 8,4 km/h (2 Bft) 95,74 %
30.03.2017 23:40 15,1 C 14,4 C 11,1 C 70 % 0 lf 1019,0 hPa 0,0 l/m 0 min 0 min 0 W/m 8,4 km/h (2 Bft) 93,62 %
30.03.2017 23:42 15,1 C 14,4 C 10,6 C 70 % 0 lf 1019,0 hPa 0,0 l/m 0 min 0 min 0 W/m 8,4 km/h (2 Bft) 97,87 %
30.03.2017 23:44 15,1 C 14,4 C 10,6 C 70 % 0 lf 1019,1 hPa 0,0 l/m 0 min 0 min 0 W/m 8,4 km/h (2 Bft) 97,87 %
30.03.2017 23:46 15,1 C 13,9 C 10,6 C 70 % 0 lf 1019,1 hPa 0,0 l/m 0 min 0 min 0 W/m 8,4 km/h (2 Bft) 95,74 %
30.03.2017 23:48 15,0 C 13,9 C 10,6 C 70 % 0 lf 1019,1 hPa 0,0 l/m 0 min 0 min 0 W/m 10,5 km/h (2 Bft) 97,83 %
30.03.2017 23:50 14,9 C 13,9 C 10,6 C 70 % 0 lf 1019,0 hPa 0,0 l/m 0 min 0 min 0 W/m 10,5 km/h (2 Bft) 96,61 %
30.03.2017 23:52 14,9 C 13,9 C 10,6 C 70 % 0 lf 1019,0 hPa 0,0 l/m 0 min 0 min 0 W/m 10,5 km/h (2 Bft) 94,29 %
30.03.2017 23:54 14,9 C 14,4 C 10,6 C 71 % 0 lf 1019,1 hPa 0,0 l/m 0 min 0 min 0 W/m 8,4 km/h (2 Bft) 95,74 %
30.03.2017 23:56 14,9 C 14,4 C 11,1 C 71 % 0 lf 1019,0 hPa 0,0 l/m 0 min 0 min 0 W/m 8,4 km/h (2 Bft) 91,49 %
30.03.2017 23:58 14,8 C 14,4 C 11,1 C 71 % 0 lf 1019,0 hPa 0,0 l/m 0 min 0 min 0 W/m 8,4 km/h (2 Bft) 97,83 %
_ Min-Zeit 07:58 02:56 06:32 17:00 00:00 23:40 - - - - 10:54 07:34
Minimum _ 11,4 C 11,7 C 8,9 C 49 % 0 lf 1019,0 hPa - - - - 2,1 km/h (1 Bft) 85,71 %
_ Max-Zeit 16:54 12:58 15:20 08:50 00:00 00:12 00:00 08:14 00:00 13:06 14:24 02:32
Maximum _ 23,4 C 31,7 C 26,1 C 87 % 0 lf 1024,8 hPa 0,0 l/m 2 min 0 min 767 W/m 35,6 km/h
W (5 Bft)
100,00 %
Durchschnitt _ 16,9 C 18,7 C 15,1 C 68 % 0 lf 1022,7 hPa #0,0 l/m #8:38 h #0 min. 333 W/m 11,4 km/h (2 Bft) 96,24 %
© 2017 W. Hausmann